Wetterdaten: Donnerstag, 16.11.2023
Datum Zeit Temp. Aussen Temp. o. S. Temp +5cm Feuchte Auss Luftdruck Regen Sonnenschein Regendauer Solar Windben Empfang
16.11.2023 00:00 7,6 C 6,7 C 3,9 C 91 % 1016,9 hPa 0,0 l/m 0 min 0 min 0 W/m 12,9 km/h (3 Bft) 93,75 %
16.11.2023 00:02 7,6 C 6,7 C 3,9 C 91 % 1017,0 hPa 0,0 l/m 0 min 0 min 0 W/m 3,2 km/h (1 Bft) 11,11 %
16.11.2023 00:04 7,6 C 6,7 C 3,9 C 91 % 1016,9 hPa 0,0 l/m 0 min 0 min 0 W/m 16,1 km/h (3 Bft) 82,50 %
16.11.2023 00:10 7,6 C 6,7 C 3,9 C 91 % 1017,0 hPa 0,0 l/m 0 min 0 min 0 W/m 16,1 km/h (3 Bft) 94,81 %
16.11.2023 00:12 7,6 C 6,7 C 3,9 C 91 % 1017,0 hPa 0,0 l/m 0 min 0 min 0 W/m 19,3 km/h (3 Bft) 97,83 %
16.11.2023 00:16 7,6 C 6,7 C 3,9 C 91 % 1017,1 hPa 0,0 l/m 0 min 0 min 0 W/m 19,3 km/h (3 Bft) 96,81 %
16.11.2023 00:18 7,6 C 6,7 C 3,9 C 91 % 1017,1 hPa 0,0 l/m 0 min 0 min 0 W/m 9,7 km/h (2 Bft) 97,87 %
16.11.2023 00:20 7,6 C 6,7 C 3,9 C 91 % 1017,1 hPa 0,0 l/m 0 min 0 min 0 W/m 12,9 km/h (3 Bft) 97,87 %
16.11.2023 00:22 7,6 C 6,7 C 3,9 C 91 % 1017,0 hPa 0,0 l/m 0 min 0 min 0 W/m 12,9 km/h (3 Bft) 97,87 %
16.11.2023 00:24 7,6 C 7,2 C 3,9 C 92 % 1017,1 hPa 0,0 l/m 0 min 0 min 0 W/m 16,1 km/h (3 Bft) 97,87 %
16.11.2023 00:26 7,6 C 7,2 C 4,4 C 92 % 1017,0 hPa 0,0 l/m 0 min 0 min 0 W/m 19,3 km/h (3 Bft) 95,65 %
16.11.2023 00:28 7,6 C 7,2 C 4,4 C 92 % 1017,0 hPa 0,0 l/m 0 min 0 min 0 W/m 16,1 km/h (3 Bft) 97,87 %
16.11.2023 00:30 7,6 C 7,2 C 4,4 C 92 % 1017,0 hPa 0,0 l/m 0 min 0 min 0 W/m 6,4 km/h (2 Bft) 97,87 %
16.11.2023 00:32 7,6 C 7,2 C 4,4 C 92 % 1017,0 hPa 0,0 l/m 0 min 0 min 0 W/m 19,3 km/h (3 Bft) 97,87 %
16.11.2023 00:34 7,6 C 7,2 C 4,4 C 92 % 1017,0 hPa 0,0 l/m 0 min 0 min 0 W/m 16,1 km/h (3 Bft) 95,74 %
16.11.2023 00:36 7,7 C 7,2 C 4,4 C 92 % 1017,0 hPa 0,0 l/m 0 min 0 min 0 W/m 12,9 km/h (3 Bft) 97,87 %
16.11.2023 00:38 7,7 C 7,2 C 4,4 C 92 % 1017,0 hPa 0,0 l/m 0 min 0 min 0 W/m 6,4 km/h (2 Bft) 97,87 %
16.11.2023 00:40 7,7 C 7,2 C 4,4 C 92 % 1017,0 hPa 0,0 l/m 0 min 0 min 0 W/m 12,9 km/h (3 Bft) 97,83 %
16.11.2023 00:42 7,7 C 7,2 C 4,4 C 92 % 1017,0 hPa 0,0 l/m 0 min 0 min 0 W/m 16,1 km/h (3 Bft) 100,00 %
16.11.2023 00:44 7,7 C 7,2 C 4,4 C 92 % 1017,1 hPa 0,0 l/m 0 min 0 min 0 W/m 16,1 km/h (3 Bft) 97,83 %
16.11.2023 00:46 7,7 C 7,2 C 4,4 C 92 % 1017,0 hPa 0,0 l/m 0 min 0 min 0 W/m 19,3 km/h (3 Bft) 100,00 %
16.11.2023 00:48 7,8 C 7,2 C 4,4 C 92 % 1017,0 hPa 0,0 l/m 0 min 0 min 0 W/m 16,1 km/h (3 Bft) 89,36 %
16.11.2023 00:50 7,8 C 7,2 C 4,4 C 92 % 1017,1 hPa 0,0 l/m 0 min 0 min 0 W/m 6,4 km/h (2 Bft) 100,00 %
16.11.2023 00:52 7,8 C 7,2 C 4,4 C 92 % 1017,0 hPa 0,0 l/m 0 min 0 min 0 W/m 16,1 km/h (3 Bft) 100,00 %
16.11.2023 00:54 7,8 C 7,2 C 4,4 C 92 % 1017,0 hPa 0,0 l/m 0 min 0 min 0 W/m 16,1 km/h (3 Bft) 97,92 %
16.11.2023 00:56 7,8 C 7,2 C 4,4 C 92 % 1017,0 hPa 0,0 l/m 0 min 0 min 0 W/m 16,1 km/h (3 Bft) 100,00 %
16.11.2023 00:58 7,8 C 7,2 C 4,4 C 92 % 1017,0 hPa 0,0 l/m 0 min 0 min 0 W/m 6,4 km/h (2 Bft) 97,83 %
16.11.2023 01:00 7,8 C 7,2 C 4,4 C 92 % 1017,0 hPa 0,0 l/m 0 min 0 min 0 W/m 12,9 km/h (3 Bft) 100,00 %
16.11.2023 01:02 7,8 C 7,2 C 4,4 C 92 % 1017,0 hPa 0,0 l/m 0 min 0 min 0 W/m 16,1 km/h (3 Bft) 97,87 %
16.11.2023 01:04 7,8 C 7,2 C 4,4 C 91 % 1017,0 hPa 0,0 l/m 0 min 0 min 0 W/m 12,9 km/h (3 Bft) 100,00 %
16.11.2023 01:08 7,8 C 7,2 C 4,4 C 91 % 1017,0 hPa 0,0 l/m 0 min 0 min 0 W/m 12,9 km/h (3 Bft) 100,00 %
16.11.2023 01:10 7,8 C 7,2 C 4,4 C 91 % 1017,0 hPa 0,0 l/m 0 min 0 min 0 W/m 12,9 km/h (3 Bft) 100,00 %
16.11.2023 01:12 7,9 C 7,2 C 4,4 C 91 % 1017,0 hPa 0,0 l/m 0 min 0 min 0 W/m 16,1 km/h (3 Bft) 95,65 %
16.11.2023 01:14 7,9 C 7,2 C 4,4 C 91 % 1017,0 hPa 0,0 l/m 0 min 0 min 0 W/m 12,9 km/h (3 Bft) 100,00 %
16.11.2023 01:16 7,9 C 7,2 C 4,4 C 91 % 1017,0 hPa 0,0 l/m 0 min 0 min 0 W/m 16,1 km/h (3 Bft) 100,00 %
16.11.2023 01:18 7,9 C 7,2 C 4,4 C 91 % 1017,0 hPa 0,0 l/m 0 min 0 min 0 W/m 6,4 km/h (2 Bft) 100,00 %
16.11.2023 01:20 7,9 C 7,2 C 4,4 C 91 % 1016,9 hPa 0,0 l/m 0 min 0 min 0 W/m 12,9 km/h (3 Bft) 97,87 %
16.11.2023 01:22 7,9 C 7,2 C 4,4 C 91 % 1016,9 hPa 0,0 l/m 0 min 0 min 0 W/m 16,1 km/h (3 Bft) 97,87 %
16.11.2023 01:24 7,9 C 7,2 C 4,4 C 91 % 1017,0 hPa 0,0 l/m 0 min 0 min 0 W/m 6,4 km/h (2 Bft) 100,00 %
16.11.2023 01:26 7,9 C 7,2 C 4,4 C 91 % 1016,9 hPa 0,0 l/m 0 min 0 min 0 W/m 19,3 km/h (3 Bft) 93,62 %
16.11.2023 01:28 7,9 C 7,2 C 4,4 C 91 % 1016,9 hPa 0,0 l/m 0 min 0 min 0 W/m 12,9 km/h (3 Bft) 97,83 %
16.11.2023 01:30 7,9 C 7,2 C 4,4 C 91 % 1016,9 hPa 0,0 l/m 0 min 0 min 0 W/m 19,3 km/h (3 Bft) 97,87 %
16.11.2023 01:32 7,9 C 7,2 C 4,4 C 91 % 1016,9 hPa 0,0 l/m 0 min 0 min 0 W/m 3,2 km/h (1 Bft) 95,74 %
16.11.2023 01:34 7,9 C 7,2 C 4,4 C 91 % 1016,9 hPa 0,0 l/m 0 min 0 min 0 W/m 16,1 km/h (3 Bft) 97,87 %
16.11.2023 01:36 7,9 C 7,2 C 4,4 C 91 % 1016,8 hPa 0,0 l/m 0 min 0 min 0 W/m 12,9 km/h (3 Bft) 97,87 %
16.11.2023 01:38 7,9 C 7,2 C 4,4 C 91 % 1016,8 hPa 0,0 l/m 0 min 0 min 0 W/m 12,9 km/h (3 Bft) 97,87 %
16.11.2023 01:40 7,9 C 7,2 C 4,4 C 91 % 1016,8 hPa 0,0 l/m 0 min 0 min 0 W/m 6,4 km/h (2 Bft) 95,74 %
16.11.2023 01:42 7,9 C 7,2 C 4,4 C 91 % 1016,8 hPa 0,0 l/m 0 min 0 min 0 W/m 6,4 km/h (2 Bft) 100,00 %
16.11.2023 01:44 7,9 C 7,2 C 4,4 C 91 % 1016,8 hPa 0,0 l/m 0 min 0 min 0 W/m 12,9 km/h (3 Bft) 97,87 %
16.11.2023 01:46 7,9 C 7,2 C 4,4 C 91 % 1016,8 hPa 0,0 l/m 0 min 0 min 0 W/m 9,7 km/h (2 Bft) 93,62 %
16.11.2023 01:48 7,9 C 7,2 C 4,4 C 91 % 1016,8 hPa 0,0 l/m 0 min 0 min 0 W/m 12,9 km/h (3 Bft) 95,74 %
16.11.2023 01:50 7,9 C 7,2 C 4,4 C 91 % 1016,8 hPa 0,0 l/m 0 min 0 min 0 W/m 19,3 km/h (3 Bft) 95,92 %
16.11.2023 01:52 7,9 C 7,2 C 4,4 C 91 % 1016,8 hPa 0,0 l/m 0 min 0 min 0 W/m 6,4 km/h (2 Bft) 95,74 %
16.11.2023 01:54 7,9 C 7,2 C 4,4 C 91 % 1016,8 hPa 0,0 l/m 0 min 0 min 0 W/m 12,9 km/h (3 Bft) 95,74 %
16.11.2023 01:56 7,9 C 7,2 C 4,4 C 91 % 1016,8 hPa 0,0 l/m 0 min 0 min 0 W/m 9,7 km/h (2 Bft) 95,74 %
16.11.2023 01:58 7,9 C 7,2 C 4,4 C 91 % 1016,8 hPa 0,0 l/m 0 min 0 min 0 W/m 16,1 km/h (3 Bft) 93,62 %
16.11.2023 02:00 7,9 C 7,2 C 4,4 C 91 % 1016,8 hPa 0,0 l/m 0 min 0 min 0 W/m 12,9 km/h (3 Bft) 100,00 %
16.11.2023 02:02 7,9 C 7,2 C 4,4 C 91 % 1016,9 hPa 0,0 l/m 0 min 0 min 0 W/m 6,4 km/h (2 Bft) 97,87 %
16.11.2023 02:04 7,9 C 7,2 C 4,4 C 91 % 1016,8 hPa 0,0 l/m 0 min 0 min 0 W/m 16,1 km/h (3 Bft) 97,67 %
16.11.2023 02:06 7,9 C 7,2 C 4,4 C 91 % 1016,8 hPa 0,0 l/m 0 min 0 min 0 W/m 12,9 km/h (3 Bft) 96,23 %
16.11.2023 02:08 7,9 C 7,2 C 4,4 C 91 % 1016,8 hPa 0,0 l/m 0 min 0 min 0 W/m 6,4 km/h (2 Bft) 95,65 %
16.11.2023 02:10 7,9 C 7,2 C 4,4 C 91 % 1016,8 hPa 0,0 l/m 0 min 0 min 0 W/m 6,4 km/h (2 Bft) 95,83 %
16.11.2023 02:14 7,9 C 7,2 C 4,4 C 91 % 1016,8 hPa 0,0 l/m 0 min 0 min 0 W/m 6,4 km/h (2 Bft) 100,00 %
16.11.2023 02:16 7,9 C 7,2 C 4,4 C 91 % 1016,8 hPa 0,0 l/m 0 min 0 min 0 W/m 16,1 km/h (3 Bft) 100,00 %
16.11.2023 02:18 7,9 C 7,2 C 4,4 C 91 % 1016,8 hPa 0,0 l/m 0 min 0 min 0 W/m 16,1 km/h (3 Bft) 97,87 %
16.11.2023 02:20 7,9 C 7,2 C 4,4 C 91 % 1016,8 hPa 0,0 l/m 0 min 0 min 0 W/m 6,4 km/h (2 Bft) 97,87 %
16.11.2023 02:22 7,9 C 7,2 C 4,4 C 91 % 1016,8 hPa 0,0 l/m 0 min 0 min 0 W/m 9,7 km/h (2 Bft) 97,87 %
16.11.2023 02:24 7,9 C 7,2 C 4,4 C 91 % 1016,7 hPa 0,0 l/m 0 min 0 min 0 W/m 6,4 km/h (2 Bft) 95,74 %
16.11.2023 02:26 7,9 C 7,2 C 4,4 C 91 % 1016,8 hPa 0,0 l/m 0 min 0 min 0 W/m 6,4 km/h (2 Bft) 100,00 %
16.11.2023 02:28 7,9 C 7,2 C 4,4 C 91 % 1016,7 hPa 0,0 l/m 0 min 0 min 0 W/m 6,4 km/h (2 Bft) 95,65 %
16.11.2023 02:30 7,9 C 7,2 C 4,4 C 91 % 1016,8 hPa 0,0 l/m 0 min 0 min 0 W/m 12,9 km/h (3 Bft) 97,87 %
16.11.2023 02:32 7,9 C 7,2 C 4,4 C 91 % 1016,7 hPa 0,0 l/m 0 min 0 min 0 W/m 16,1 km/h (3 Bft) 95,74 %
16.11.2023 02:34 7,9 C 7,2 C 4,4 C 91 % 1016,8 hPa 0,0 l/m 0 min 0 min 0 W/m 12,9 km/h (3 Bft) 100,00 %
16.11.2023 02:36 7,9 C 7,2 C 4,4 C 91 % 1016,7 hPa 0,0 l/m 0 min 0 min 0 W/m 16,1 km/h (3 Bft) 100,00 %
16.11.2023 02:38 7,9 C 7,2 C 4,4 C 91 % 1016,7 hPa 0,0 l/m 0 min 0 min 0 W/m 6,4 km/h (2 Bft) 100,00 %
16.11.2023 02:40 7,9 C 7,2 C 4,4 C 91 % 1016,8 hPa 0,0 l/m 0 min 0 min 0 W/m 16,1 km/h (3 Bft) 100,00 %
16.11.2023 02:42 7,9 C 7,2 C 4,4 C 91 % 1016,7 hPa 0,0 l/m 0 min 0 min 0 W/m 3,2 km/h (1 Bft) 100,00 %
16.11.2023 02:44 7,9 C 7,2 C 4,4 C 91 % 1016,7 hPa 0,0 l/m 0 min 0 min 0 W/m 6,4 km/h (2 Bft) 100,00 %
16.11.2023 02:46 7,9 C 7,2 C 4,4 C 91 % 1016,7 hPa 0,0 l/m 0 min 0 min 0 W/m 9,7 km/h (2 Bft) 100,00 %
16.11.2023 02:48 7,8 C 7,2 C 4,4 C 91 % 1016,7 hPa 0,0 l/m 0 min 0 min 0 W/m 12,9 km/h (3 Bft) 100,00 %
16.11.2023 02:50 7,8 C 7,2 C 4,4 C 91 % 1016,6 hPa 0,0 l/m 0 min 0 min 0 W/m 16,1 km/h (3 Bft) 97,87 %
16.11.2023 02:52 7,8 C 7,2 C 4,4 C 91 % 1016,6 hPa 0,0 l/m 0 min 0 min 0 W/m 16,1 km/h (3 Bft) 97,83 %
16.11.2023 02:54 7,8 C 7,2 C 4,4 C 91 % 1016,6 hPa 0,0 l/m 0 min 0 min 0 W/m 6,4 km/h (2 Bft) 51,22 %
16.11.2023 02:56 7,8 C 7,2 C 4,4 C 91 % 1016,7 hPa 0,0 l/m 0 min 0 min 0 W/m 22,5 km/h (4 Bft) 97,73 %
16.11.2023 02:58 7,8 C 7,2 C 4,4 C 91 % 1016,7 hPa 0,0 l/m 0 min 0 min 0 W/m 6,4 km/h (2 Bft) 97,87 %
16.11.2023 03:00 7,8 C 7,2 C 4,4 C 91 % 1016,6 hPa 0,0 l/m 0 min 0 min 0 W/m 9,7 km/h (2 Bft) 97,87 %
16.11.2023 03:02 7,8 C 7,2 C 4,4 C 91 % 1016,6 hPa 0,0 l/m 0 min 0 min 0 W/m 9,7 km/h (2 Bft) 95,65 %
16.11.2023 03:04 7,8 C 7,2 C 4,4 C 91 % 1016,7 hPa 0,0 l/m 0 min 0 min 0 W/m 6,4 km/h (2 Bft) 97,83 %
16.11.2023 03:08 7,8 C 7,2 C 4,4 C 91 % 1016,7 hPa 0,0 l/m 0 min 0 min 0 W/m 12,9 km/h (3 Bft) 97,03 %
16.11.2023 03:09 7,7 C 7,2 C 4,4 C 91 % 1016,7 hPa 0,0 l/m 0 min 0 min 0 W/m 16,1 km/h (3 Bft) 100,00 %
16.11.2023 03:12 7,7 C 6,7 C 4,4 C 91 % 1016,7 hPa 0,0 l/m 0 min 0 min 0 W/m 9,7 km/h (2 Bft) 97,18 %
16.11.2023 03:14 7,7 C 6,7 C 4,4 C 91 % 1016,6 hPa 0,0 l/m 0 min 0 min 0 W/m 16,1 km/h (3 Bft) 97,83 %
16.11.2023 03:16 7,7 C 6,7 C 3,9 C 91 % 1016,6 hPa 0,0 l/m 0 min 0 min 0 W/m 19,3 km/h (3 Bft) 95,74 %
16.11.2023 03:18 7,6 C 6,7 C 3,9 C 91 % 1016,6 hPa 0,0 l/m 0 min 0 min 0 W/m 6,4 km/h (2 Bft) 97,87 %
16.11.2023 03:20 7,6 C 6,7 C 3,9 C 91 % 1016,5 hPa 0,0 l/m 0 min 0 min 0 W/m 9,7 km/h (2 Bft) 89,19 %
16.11.2023 03:22 7,6 C 6,7 C 3,9 C 91 % 1016,5 hPa 0,0 l/m 0 min 0 min 0 W/m 6,4 km/h (2 Bft) 95,74 %
16.11.2023 03:24 7,6 C 6,7 C 3,9 C 91 % 1016,5 hPa 0,0 l/m 0 min 0 min 0 W/m 12,9 km/h (3 Bft) 95,74 %
16.11.2023 03:26 7,6 C 6,7 C 3,9 C 91 % 1016,4 hPa 0,0 l/m 0 min 0 min 0 W/m 12,9 km/h (3 Bft) 93,62 %
16.11.2023 03:28 7,5 C 6,7 C 3,9 C 91 % 1016,4 hPa 0,0 l/m 0 min 0 min 0 W/m 6,4 km/h (2 Bft) 91,49 %
16.11.2023 03:30 7,5 C 6,7 C 3,9 C 91 % 1016,4 hPa 0,0 l/m 0 min 0 min 0 W/m 16,1 km/h (3 Bft) 95,74 %
16.11.2023 03:32 7,4 C 6,7 C 3,9 C 91 % 1016,4 hPa 0,0 l/m 0 min 0 min 0 W/m 12,9 km/h (3 Bft) 95,65 %
16.11.2023 03:34 7,4 C 6,7 C 3,9 C 91 % 1016,5 hPa 0,0 l/m 0 min 0 min 0 W/m 3,2 km/h (1 Bft) 95,74 %
16.11.2023 03:36 7,4 C 6,7 C 3,9 C 91 % 1016,5 hPa 0,0 l/m 0 min 0 min 0 W/m 6,4 km/h (2 Bft) 95,74 %
16.11.2023 03:38 7,4 C 6,7 C 3,9 C 91 % 1016,5 hPa 0,0 l/m 0 min 0 min 0 W/m 6,4 km/h (2 Bft) 95,74 %
16.11.2023 03:40 7,4 C 6,7 C 3,9 C 91 % 1016,5 hPa 0,0 l/m 0 min 0 min 0 W/m 16,1 km/h (3 Bft) 91,49 %
16.11.2023 03:42 7,4 C 6,7 C 3,9 C 91 % 1016,5 hPa 0,0 l/m 0 min 0 min 0 W/m 6,4 km/h (2 Bft) 97,87 %
16.11.2023 03:44 7,3 C 6,7 C 3,9 C 91 % 1016,5 hPa 0,0 l/m 0 min 0 min 0 W/m 6,4 km/h (2 Bft) 97,87 %
16.11.2023 03:46 7,3 C 6,7 C 3,9 C 91 % 1016,5 hPa 0,0 l/m 0 min 0 min 0 W/m 6,4 km/h (2 Bft) 97,87 %
16.11.2023 03:48 7,3 C 6,7 C 3,9 C 91 % 1016,6 hPa 0,0 l/m 0 min 0 min 0 W/m 12,9 km/h (3 Bft) 93,48 %
16.11.2023 03:50 7,3 C 6,7 C 3,9 C 91 % 1016,6 hPa 0,0 l/m 0 min 0 min 0 W/m 9,7 km/h (2 Bft) 100,00 %
16.11.2023 03:52 7,3 C 6,7 C 3,9 C 92 % 1016,6 hPa 0,0 l/m 0 min 0 min 0 W/m 6,4 km/h (2 Bft) 100,00 %
16.11.2023 03:54 7,3 C 6,7 C 3,9 C 92 % 1016,5 hPa 0,0 l/m 0 min 0 min 0 W/m 3,2 km/h (1 Bft) 100,00 %
16.11.2023 03:56 7,3 C 6,7 C 3,9 C 92 % 1016,6 hPa 0,0 l/m 0 min 0 min 0 W/m 12,9 km/h (3 Bft) 97,87 %
16.11.2023 03:58 7,3 C 6,7 C 3,9 C 92 % 1016,6 hPa 0,0 l/m 0 min 0 min 0 W/m 12,9 km/h (3 Bft) 97,87 %
16.11.2023 04:00 7,3 C 6,7 C 3,9 C 92 % 1016,5 hPa 0,0 l/m 0 min 0 min 0 W/m 6,4 km/h (2 Bft) 100,00 %
16.11.2023 04:02 7,3 C 6,7 C 3,9 C 92 % 1016,5 hPa 0,0 l/m 0 min 0 min 0 W/m 12,9 km/h (3 Bft) 100,00 %
16.11.2023 04:04 7,3 C 6,7 C 3,9 C 92 % 1016,5 hPa 0,0 l/m 0 min 0 min 0 W/m 6,4 km/h (2 Bft) 100,00 %
16.11.2023 04:08 7,3 C 6,7 C 3,9 C 92 % 1016,5 hPa 0,0 l/m 0 min 0 min 0 W/m 6,4 km/h (2 Bft) 97,87 %
16.11.2023 04:09 7,3 C 6,7 C 3,9 C 92 % 1016,5 hPa 0,0 l/m 0 min 0 min 0 W/m 3,2 km/h (1 Bft) 100,00 %
16.11.2023 04:12 7,3 C 6,7 C 3,9 C 92 % 1016,5 hPa 0,0 l/m 0 min 0 min 0 W/m 6,4 km/h (2 Bft) 100,00 %
16.11.2023 04:14 7,3 C 6,7 C 3,9 C 92 % 1016,6 hPa 0,0 l/m 0 min 0 min 0 W/m 3,2 km/h (1 Bft) 100,00 %
16.11.2023 04:16 7,3 C 6,7 C 3,9 C 92 % 1016,5 hPa 0,0 l/m 0 min 0 min 0 W/m 9,7 km/h (2 Bft) 100,00 %
16.11.2023 04:18 7,3 C 6,7 C 3,9 C 92 % 1016,6 hPa 0,0 l/m 0 min 0 min 0 W/m 6,4 km/h (2 Bft) 97,87 %
16.11.2023 04:20 7,3 C 6,7 C 3,9 C 92 % 1016,6 hPa 0,0 l/m 0 min 0 min 0 W/m 6,4 km/h (2 Bft) 97,87 %
16.11.2023 04:22 7,3 C 6,7 C 3,9 C 92 % 1016,6 hPa 0,0 l/m 0 min 0 min 0 W/m 6,4 km/h (2 Bft) 97,87 %
16.11.2023 04:24 7,3 C 6,7 C 3,9 C 92 % 1016,6 hPa 0,0 l/m 0 min 0 min 0 W/m 3,2 km/h (1 Bft) 95,74 %
16.11.2023 04:26 7,3 C 6,7 C 3,9 C 92 % 1016,6 hPa 0,0 l/m 0 min 0 min 0 W/m 6,4 km/h (2 Bft) 95,74 %
16.11.2023 04:28 7,3 C 6,7 C 3,9 C 92 % 1016,6 hPa 0,0 l/m 0 min 0 min 0 W/m 6,4 km/h (2 Bft) 97,83 %
16.11.2023 04:30 7,3 C 6,7 C 3,9 C 92 % 1016,5 hPa 0,0 l/m 0 min 0 min 0 W/m 3,2 km/h (1 Bft) 97,87 %
16.11.2023 04:32 7,3 C 6,7 C 3,9 C 92 % 1016,5 hPa 0,0 l/m 0 min 0 min 0 W/m 6,4 km/h (2 Bft) 97,87 %
16.11.2023 04:34 7,3 C 6,7 C 3,9 C 92 % 1016,6 hPa 0,0 l/m 0 min 0 min 0 W/m 16,1 km/h (3 Bft) 97,87 %
16.11.2023 04:36 7,3 C 6,7 C 3,9 C 92 % 1016,5 hPa 0,0 l/m 0 min 0 min 0 W/m 6,4 km/h (2 Bft) 98,11 %
16.11.2023 04:38 7,3 C 6,7 C 3,9 C 93 % 1016,5 hPa 0,0 l/m 0 min 0 min 0 W/m 6,4 km/h (2 Bft) 97,87 %
16.11.2023 04:40 7,3 C 6,7 C 3,9 C 93 % 1016,5 hPa 0,0 l/m 0 min 0 min 0 W/m 3,2 km/h (1 Bft) 97,87 %
16.11.2023 04:42 7,3 C 6,7 C 3,9 C 93 % 1016,5 hPa 0,0 l/m 0 min 0 min 0 W/m 12,9 km/h (3 Bft) 95,65 %
16.11.2023 04:44 7,3 C 6,7 C 3,9 C 93 % 1016,5 hPa 0,0 l/m 0 min 0 min 0 W/m 6,4 km/h (2 Bft) 97,87 %
16.11.2023 04:46 7,3 C 6,7 C 3,9 C 93 % 1016,5 hPa 0,0 l/m 0 min 0 min 0 W/m 3,2 km/h (1 Bft) 97,87 %
16.11.2023 04:48 7,3 C 6,7 C 3,9 C 93 % 1016,6 hPa 0,0 l/m 0 min 0 min 0 W/m 6,4 km/h (2 Bft) 97,87 %
16.11.2023 04:50 7,3 C 6,7 C 3,9 C 93 % 1016,6 hPa 0,0 l/m 0 min 0 min 0 W/m 3,2 km/h (1 Bft) 95,74 %
16.11.2023 04:52 7,3 C 6,7 C 3,9 C 93 % 1016,6 hPa 0,0 l/m 0 min 0 min 0 W/m 6,4 km/h (2 Bft) 97,87 %
16.11.2023 04:54 7,3 C 6,7 C 3,9 C 93 % 1016,6 hPa 0,0 l/m 0 min 0 min 0 W/m 3,2 km/h (1 Bft) 97,87 %
16.11.2023 04:56 7,3 C 6,7 C 3,9 C 93 % 1016,5 hPa 0,0 l/m 0 min 0 min 0 W/m 3,2 km/h (1 Bft) 95,65 %
16.11.2023 04:58 7,3 C 6,7 C 3,9 C 93 % 1016,5 hPa 0,0 l/m 0 min 0 min 0 W/m 3,2 km/h (1 Bft) 95,74 %
16.11.2023 05:00 7,3 C 6,7 C 3,9 C 93 % 1016,5 hPa 0,0 l/m 0 min 0 min 0 W/m 3,2 km/h (1 Bft) 100,00 %
16.11.2023 05:02 7,3 C 6,7 C 3,9 C 93 % 1016,5 hPa 0,0 l/m 0 min 0 min 0 W/m 3,2 km/h (1 Bft) 100,00 %
16.11.2023 05:04 7,3 C 6,7 C 3,9 C 93 % 1016,5 hPa 0,0 l/m 0 min 0 min 0 W/m 6,4 km/h (2 Bft) 100,00 %
16.11.2023 05:10 7,3 C 6,7 C 3,9 C 93 % 1016,4 hPa 0,0 l/m 0 min 0 min 0 W/m 16,1 km/h (3 Bft) 99,28 %
16.11.2023 05:12 7,3 C 6,7 C 3,9 C 93 % 1016,4 hPa 0,0 l/m 0 min 0 min 0 W/m 6,4 km/h (2 Bft) 97,87 %
16.11.2023 05:14 7,3 C 6,7 C 3,9 C 93 % 1016,3 hPa 0,0 l/m 0 min 0 min 0 W/m 3,2 km/h (1 Bft) 97,87 %
16.11.2023 05:16 7,3 C 6,7 C 3,9 C 93 % 1016,4 hPa 0,0 l/m 0 min 0 min 0 W/m 3,2 km/h (1 Bft) 95,74 %
16.11.2023 05:18 7,3 C 6,7 C 3,9 C 93 % 1016,4 hPa 0,0 l/m 0 min 0 min 0 W/m 6,4 km/h (2 Bft) 97,87 %
16.11.2023 05:20 7,3 C 6,7 C 3,9 C 93 % 1016,4 hPa 0,0 l/m 0 min 0 min 0 W/m 6,4 km/h (2 Bft) 97,87 %
16.11.2023 05:22 7,3 C 6,7 C 3,9 C 93 % 1016,4 hPa 0,0 l/m 0 min 0 min 0 W/m 6,4 km/h (2 Bft) 97,87 %
16.11.2023 05:24 7,3 C 6,7 C 3,9 C 93 % 1016,3 hPa 0,0 l/m 0 min 0 min 0 W/m 6,4 km/h (2 Bft) 97,96 %
16.11.2023 05:26 7,3 C 6,7 C 3,9 C 93 % 1016,4 hPa 0,0 l/m 0 min 0 min 0 W/m 3,2 km/h (1 Bft) 97,87 %
16.11.2023 05:28 7,3 C 6,7 C 3,9 C 93 % 1016,4 hPa 0,0 l/m 0 min 0 min 0 W/m 6,4 km/h (2 Bft) 97,87 %
16.11.2023 05:30 7,4 C 6,7 C 3,9 C 93 % 1016,4 hPa 0,0 l/m 0 min 0 min 0 W/m 12,9 km/h (3 Bft) 97,87 %
16.11.2023 05:32 7,3 C 6,7 C 3,9 C 93 % 1016,3 hPa 0,0 l/m 0 min 0 min 0 W/m 3,2 km/h (1 Bft) 68,09 %
16.11.2023 05:34 7,4 C 6,7 C 3,9 C 93 % 1016,3 hPa 0,0 l/m 0 min 0 min 0 W/m 6,4 km/h (2 Bft) 82,50 %
16.11.2023 05:36 7,3 C 6,7 C 3,9 C 93 % 1016,3 hPa 0,0 l/m 0 min 0 min 0 W/m 3,2 km/h (1 Bft) 97,87 %
16.11.2023 05:38 7,4 C 6,7 C 3,9 C 93 % 1016,2 hPa 0,0 l/m 0 min 0 min 0 W/m 9,7 km/h (2 Bft) 95,74 %
16.11.2023 05:40 7,4 C 6,7 C 3,9 C 93 % 1016,2 hPa 0,0 l/m 0 min 0 min 0 W/m 6,4 km/h (2 Bft) 97,87 %
16.11.2023 05:42 7,4 C 6,7 C 3,9 C 93 % 1016,2 hPa 0,0 l/m 0 min 0 min 0 W/m 6,4 km/h (2 Bft) 100,00 %
16.11.2023 05:44 7,4 C 6,7 C 3,9 C 93 % 1016,2 hPa 0,0 l/m 0 min 0 min 0 W/m 6,4 km/h (2 Bft) 97,87 %
16.11.2023 05:46 7,4 C 6,7 C 3,9 C 93 % 1016,1 hPa 0,0 l/m 0 min 0 min 0 W/m 6,4 km/h (2 Bft) 100,00 %
16.11.2023 05:48 7,4 C 6,7 C 3,9 C 93 % 1016,1 hPa 0,0 l/m 0 min 0 min 0 W/m 6,4 km/h (2 Bft) 100,00 %
16.11.2023 05:50 7,4 C 6,7 C 3,9 C 93 % 1016,1 hPa 0,0 l/m 0 min 0 min 0 W/m 12,9 km/h (3 Bft) 97,87 %
16.11.2023 05:56 7,4 C 6,7 C 3,9 C 93 % 1016,1 hPa 0,0 l/m 0 min 0 min 0 W/m 3,2 km/h (1 Bft) 100,00 %
16.11.2023 05:58 7,4 C 6,7 C 3,9 C 93 % 1016,2 hPa 0,0 l/m 0 min 0 min 0 W/m 3,2 km/h (1 Bft) 97,30 %
16.11.2023 06:00 7,4 C 6,7 C 4,4 C 93 % 1016,2 hPa 0,0 l/m 0 min 0 min 0 W/m 6,4 km/h (2 Bft) 97,87 %
16.11.2023 06:02 7,4 C 6,7 C 3,9 C 93 % 1016,1 hPa 0,0 l/m 0 min 0 min 0 W/m 3,2 km/h (1 Bft) 89,58 %
16.11.2023 06:04 7,4 C 6,7 C 3,9 C 93 % 1016,2 hPa 0,0 l/m 0 min 0 min 0 W/m 6,4 km/h (2 Bft) 97,78 %
16.11.2023 06:08 7,4 C 6,7 C 3,9 C 93 % 1016,2 hPa 0,0 l/m 0 min 0 min 0 W/m 9,7 km/h (2 Bft) 96,81 %
16.11.2023 06:09 7,4 C 6,7 C 3,9 C 93 % 1016,2 hPa 0,0 l/m 0 min 0 min 0 W/m 6,4 km/h (2 Bft) 96,67 %
16.11.2023 06:10 7,4 C 6,7 C 3,9 C 93 % 1016,2 hPa 0,0 l/m 0 min 0 min 0 W/m 12,9 km/h (3 Bft) 100,00 %
16.11.2023 06:14 7,4 C 6,7 C 3,9 C 93 % 1016,2 hPa 0,0 l/m 0 min 0 min 0 W/m 6,4 km/h (2 Bft) 95,74 %
16.11.2023 06:16 7,4 C 6,7 C 3,9 C 93 % 1016,2 hPa 0,0 l/m 0 min 0 min 0 W/m 16,1 km/h (3 Bft) 97,87 %
16.11.2023 06:18 7,4 C 6,7 C 4,4 C 93 % 1016,2 hPa 0,0 l/m 0 min 0 min 0 W/m 12,9 km/h (3 Bft) 97,87 %
16.11.2023 06:20 7,4 C 6,7 C 4,4 C 93 % 1016,2 hPa 0,0 l/m 0 min 0 min 0 W/m 6,4 km/h (2 Bft) 93,62 %
16.11.2023 06:22 7,4 C 6,7 C 4,4 C 93 % 1016,3 hPa 0,0 l/m 0 min 0 min 0 W/m 6,4 km/h (2 Bft) 95,74 %
16.11.2023 06:24 7,4 C 6,7 C 4,4 C 93 % 1016,2 hPa 0,0 l/m 0 min 0 min 0 W/m 16,1 km/h (3 Bft) 97,87 %
16.11.2023 06:26 7,4 C 6,7 C 4,4 C 93 % 1016,3 hPa 0,0 l/m 0 min 0 min 0 W/m 9,7 km/h (2 Bft) 95,74 %
16.11.2023 06:28 7,4 C 6,7 C 4,4 C 93 % 1016,3 hPa 0,0 l/m 0 min 0 min 0 W/m 3,2 km/h (1 Bft) 95,74 %
16.11.2023 06:30 7,4 C 6,7 C 4,4 C 93 % 1016,3 hPa 0,0 l/m 0 min 0 min 0 W/m 3,2 km/h (1 Bft) 97,83 %
16.11.2023 06:32 7,4 C 6,7 C 4,4 C 93 % 1016,2 hPa 0,0 l/m 0 min 0 min 0 W/m 3,2 km/h (1 Bft) 93,62 %
16.11.2023 06:34 7,4 C 6,7 C 4,4 C 93 % 1016,3 hPa 0,0 l/m 0 min 0 min 0 W/m 3,2 km/h (1 Bft) 97,87 %
16.11.2023 06:36 7,4 C 6,7 C 3,9 C 93 % 1016,3 hPa 0,0 l/m 0 min 0 min 0 W/m 3,2 km/h (1 Bft) 93,62 %
16.11.2023 06:38 7,4 C 6,7 C 3,9 C 93 % 1016,2 hPa 0,0 l/m 0 min 0 min 0 W/m 3,2 km/h (1 Bft) 95,74 %
16.11.2023 06:40 7,4 C 6,7 C 3,9 C 93 % 1016,2 hPa 0,0 l/m 0 min 0 min 0 W/m 6,4 km/h (2 Bft) 97,87 %
16.11.2023 06:42 7,4 C 6,7 C 4,4 C 93 % 1016,1 hPa 0,0 l/m 0 min 0 min 0 W/m 3,2 km/h (1 Bft) 95,74 %
16.11.2023 06:44 7,4 C 6,7 C 4,4 C 93 % 1016,1 hPa 0,0 l/m 0 min 0 min 0 W/m 6,4 km/h (2 Bft) 93,48 %
16.11.2023 06:46 7,4 C 6,7 C 3,9 C 93 % 1016,1 hPa 0,0 l/m 0 min 0 min 0 W/m 6,4 km/h (2 Bft) 100,00 %
16.11.2023 06:48 7,4 C 6,7 C 3,9 C 93 % 1016,1 hPa 0,0 l/m 0 min 0 min 0 W/m 6,4 km/h (2 Bft) 95,74 %
16.11.2023 06:50 7,4 C 6,7 C 4,4 C 93 % 1016,1 hPa 0,0 l/m 0 min 0 min 0 W/m 12,9 km/h (3 Bft) 97,87 %
16.11.2023 06:52 7,4 C 6,7 C 4,4 C 93 % 1016,1 hPa 0,0 l/m 0 min 0 min 0 W/m 6,4 km/h (2 Bft) 93,62 %
16.11.2023 06:54 7,4 C 6,7 C 4,4 C 93 % 1016,1 hPa 0,0 l/m 0 min 0 min 0 W/m 6,4 km/h (2 Bft) 98,18 %
16.11.2023 06:56 7,4 C 6,7 C 4,4 C 94 % 1016,1 hPa 0,0 l/m 0 min 0 min 0 W/m 3,2 km/h (1 Bft) 95,74 %
16.11.2023 06:58 7,4 C 6,7 C 4,4 C 94 % 1016,1 hPa 0,0 l/m 0 min 0 min 0 W/m 3,2 km/h (1 Bft) 95,74 %
16.11.2023 07:00 7,4 C 6,7 C 4,4 C 94 % 1016,1 hPa 0,0 l/m 0 min 0 min 0 W/m 3,2 km/h (1 Bft) 95,65 %
16.11.2023 07:02 7,4 C 6,7 C 4,4 C 94 % 1016,1 hPa 0,0 l/m 0 min 0 min 0 W/m 3,2 km/h (1 Bft) 95,74 %
16.11.2023 07:04 7,4 C 6,7 C 4,4 C 94 % 1016,1 hPa 0,0 l/m 0 min 0 min 0 W/m 3,2 km/h (1 Bft) 93,48 %
16.11.2023 07:06 7,4 C 6,7 C 4,4 C 94 % 1016,0 hPa 0,0 l/m 0 min 0 min 0 W/m 0,0 km/h (0 Bft) 95,74 %
16.11.2023 07:08 7,4 C 6,7 C 4,4 C 94 % 1016,0 hPa 0,0 l/m 0 min 0 min 0 W/m 6,4 km/h (2 Bft) 95,74 %
16.11.2023 07:10 7,4 C 6,7 C 4,4 C 94 % 1016,0 hPa 0,0 l/m 0 min 0 min 0 W/m 3,2 km/h (1 Bft) 95,74 %
16.11.2023 07:12 7,4 C 6,7 C 4,4 C 94 % 1015,9 hPa 0,0 l/m 0 min 0 min 0 W/m 6,4 km/h (2 Bft) 95,65 %
16.11.2023 07:14 7,4 C 6,7 C 4,4 C 94 % 1016,0 hPa 0,0 l/m 0 min 0 min 0 W/m 6,4 km/h (2 Bft) 93,62 %
16.11.2023 07:16 7,4 C 6,7 C 4,4 C 94 % 1016,0 hPa 0,0 l/m 0 min 0 min 0 W/m 6,4 km/h (2 Bft) 95,74 %
16.11.2023 07:18 7,4 C 6,7 C 4,4 C 94 % 1015,9 hPa 0,0 l/m 0 min 0 min 0 W/m 3,2 km/h (1 Bft) 95,74 %
16.11.2023 07:20 7,4 C 6,7 C 4,4 C 94 % 1015,8 hPa 0,0 l/m 0 min 0 min 0 W/m 6,4 km/h (2 Bft) 95,74 %
16.11.2023 07:22 7,4 C 6,7 C 4,4 C 94 % 1015,9 hPa 0,0 l/m 0 min 0 min 0 W/m 6,4 km/h (2 Bft) 95,74 %
16.11.2023 07:24 7,4 C 6,7 C 4,4 C 94 % 1015,8 hPa 0,0 l/m 0 min 0 min 0 W/m 6,4 km/h (2 Bft) 95,74 %
16.11.2023 07:26 7,4 C 6,7 C 4,4 C 94 % 1015,8 hPa 0,0 l/m 0 min 0 min 0 W/m 6,4 km/h (2 Bft) 95,65 %
16.11.2023 07:28 7,4 C 6,7 C 4,4 C 94 % 1015,7 hPa 0,0 l/m 0 min 0 min 0 W/m 6,4 km/h (2 Bft) 93,62 %
16.11.2023 07:30 7,4 C 6,7 C 4,4 C 94 % 1015,7 hPa 0,0 l/m 0 min 0 min 0 W/m 6,4 km/h (2 Bft) 95,74 %
16.11.2023 07:32 7,4 C 6,7 C 4,4 C 94 % 1015,6 hPa 0,0 l/m 0 min 0 min 0 W/m 6,4 km/h (2 Bft) 95,74 %
16.11.2023 07:34 7,4 C 6,7 C 4,4 C 94 % 1015,6 hPa 0,0 l/m 0 min 0 min 0 W/m 3,2 km/h (1 Bft) 100,00 %
16.11.2023 07:36 7,4 C 6,7 C 4,4 C 94 % 1015,6 hPa 0,0 l/m 0 min 0 min 0 W/m 0,0 km/h (0 Bft) 100,00 %
16.11.2023 07:38 7,4 C 6,7 C 4,4 C 94 % 1015,6 hPa 0,0 l/m 0 min 0 min 0 W/m 3,2 km/h (1 Bft) 100,00 %
16.11.2023 07:40 7,4 C 6,7 C 4,4 C 94 % 1015,6 hPa 0,0 l/m 0 min 0 min 0 W/m 3,2 km/h (1 Bft) 100,00 %
16.11.2023 07:42 7,4 C 6,7 C 4,4 C 94 % 1015,6 hPa 0,0 l/m 0 min 0 min 0 W/m 0,0 km/h (0 Bft) 100,00 %
16.11.2023 07:44 7,4 C 6,7 C 4,4 C 94 % 1015,7 hPa 0,0 l/m 0 min 0 min 0 W/m 3,2 km/h (1 Bft) 100,00 %
16.11.2023 07:46 7,4 C 6,7 C 4,4 C 94 % 1015,7 hPa 0,0 l/m 0 min 0 min 0 W/m 0,0 km/h (0 Bft) 97,87 %
16.11.2023 07:48 7,4 C 6,7 C 4,4 C 94 % 1015,6 hPa 0,0 l/m 0 min 0 min 0 W/m 3,2 km/h (1 Bft) 100,00 %
16.11.2023 07:50 7,4 C 6,7 C 4,4 C 94 % 1015,7 hPa 0,0 l/m 0 min 0 min 0 W/m 0,0 km/h (0 Bft) 100,00 %
16.11.2023 07:52 7,4 C 6,7 C 4,4 C 94 % 1015,7 hPa 0,0 l/m 0 min 0 min 0 W/m 3,2 km/h (1 Bft) 95,74 %
16.11.2023 07:54 7,4 C 6,7 C 4,4 C 94 % 1015,6 hPa 0,0 l/m 0 min 0 min 0 W/m 3,2 km/h (1 Bft) 100,00 %
16.11.2023 07:56 7,4 C 6,7 C 4,4 C 94 % 1015,6 hPa 0,0 l/m 0 min 0 min 0 W/m 0,0 km/h (0 Bft) 97,92 %
16.11.2023 07:58 7,4 C 6,7 C 4,4 C 94 % 1015,6 hPa 0,0 l/m 0 min 0 min 0 W/m 0,0 km/h (0 Bft) 100,00 %
16.11.2023 08:00 7,4 C 6,7 C 4,4 C 94 % 1015,6 hPa 0,0 l/m 0 min 0 min 0 W/m 0,0 km/h (0 Bft) 100,00 %
16.11.2023 08:02 7,4 C 6,7 C 3,9 C 94 % 1015,5 hPa 0,0 l/m 0 min 0 min 4 W/m 0,0 km/h (0 Bft) 100,00 %
16.11.2023 08:04 7,4 C 6,7 C 3,9 C 94 % 1015,6 hPa 0,0 l/m 0 min 0 min 5 W/m 0,0 km/h (0 Bft) 100,00 %
16.11.2023 08:06 7,4 C 6,7 C 3,9 C 94 % 1015,5 hPa 0,0 l/m 0 min 0 min 5 W/m 0,0 km/h (0 Bft) 100,00 %
16.11.2023 08:08 7,4 C 6,7 C 3,9 C 94 % 1015,5 hPa 0,0 l/m 0 min 0 min 5 W/m 0,0 km/h (0 Bft) 97,87 %
16.11.2023 08:10 7,4 C 6,7 C 3,9 C 94 % 1015,4 hPa 0,0 l/m 0 min 0 min 5 W/m 0,0 km/h (0 Bft) 97,87 %
16.11.2023 08:12 7,4 C 6,7 C 3,9 C 94 % 1015,4 hPa 0,0 l/m 0 min 0 min 5 W/m 0,0 km/h (0 Bft) 100,00 %
16.11.2023 08:14 7,4 C 6,7 C 3,9 C 94 % 1015,4 hPa 0,0 l/m 0 min 0 min 5 W/m 0,0 km/h (0 Bft) 91,49 %
16.11.2023 08:16 7,4 C 6,7 C 3,9 C 94 % 1015,4 hPa 0,0 l/m 0 min 0 min 5 W/m 0,0 km/h (0 Bft) 64,44 %
16.11.2023 08:18 7,4 C 6,7 C 4,4 C 94 % 1015,4 hPa 0,0 l/m 0 min 0 min 5 W/m 0,0 km/h (0 Bft) 100,00 %
16.11.2023 08:20 7,4 C 6,7 C 4,4 C 94 % 1015,3 hPa 0,0 l/m 0 min 0 min 5 W/m 0,0 km/h (0 Bft) 100,00 %
16.11.2023 08:22 7,4 C 6,7 C 4,4 C 94 % 1015,3 hPa 0,0 l/m 0 min 0 min 5 W/m 0,0 km/h (0 Bft) 100,00 %
16.11.2023 08:24 7,4 C 6,7 C 4,4 C 94 % 1015,2 hPa 0,0 l/m 0 min 0 min 5 W/m 3,2 km/h (1 Bft) 100,00 %
16.11.2023 08:26 7,4 C 6,7 C 4,4 C 94 % 1015,1 hPa 0,0 l/m 0 min 0 min 5 W/m 0,0 km/h (0 Bft) 100,00 %
16.11.2023 08:28 7,4 C 6,7 C 4,4 C 94 % 1015,1 hPa 0,0 l/m 0 min 0 min 6 W/m 0,0 km/h (0 Bft) 97,92 %
16.11.2023 08:30 7,4 C 6,7 C 4,4 C 94 % 1015,1 hPa 0,0 l/m 0 min 0 min 7 W/m 3,2 km/h (1 Bft) 100,00 %
16.11.2023 08:32 7,4 C 6,7 C 4,4 C 94 % 1015,1 hPa 0,0 l/m 0 min 0 min 7 W/m 0,0 km/h (0 Bft) 100,00 %
16.11.2023 08:34 7,4 C 6,7 C 4,4 C 94 % 1015,1 hPa 0,0 l/m 0 min 0 min 7 W/m 0,0 km/h (0 Bft) 100,00 %
16.11.2023 08:36 7,4 C 6,7 C 4,4 C 94 % 1015,0 hPa 0,0 l/m 0 min 0 min 7 W/m 0,0 km/h (0 Bft) 100,00 %
16.11.2023 08:38 7,4 C 6,7 C 4,4 C 94 % 1015,0 hPa 0,0 l/m 0 min 0 min 8 W/m 0,0 km/h (0 Bft) 97,87 %
16.11.2023 08:40 7,4 C 6,7 C 4,4 C 94 % 1014,9 hPa 0,0 l/m 0 min 0 min 9 W/m 0,0 km/h (0 Bft) 100,00 %
16.11.2023 08:42 7,4 C 6,7 C 4,4 C 94 % 1014,9 hPa 0,0 l/m 0 min 0 min 9 W/m 0,0 km/h (0 Bft) 97,83 %
16.11.2023 08:44 7,4 C 6,7 C 4,4 C 94 % 1014,9 hPa 0,0 l/m 0 min 0 min 9 W/m 0,0 km/h (0 Bft) 100,00 %
16.11.2023 08:46 7,4 C 6,7 C 4,4 C 94 % 1014,8 hPa 0,0 l/m 0 min 0 min 9 W/m 0,0 km/h (0 Bft) 96,08 %
16.11.2023 08:48 7,4 C 6,7 C 4,4 C 94 % 1014,9 hPa 0,0 l/m 0 min 0 min 9 W/m 0,0 km/h (0 Bft) 100,00 %
16.11.2023 08:50 7,4 C 6,7 C 4,4 C 94 % 1014,8 hPa 0,0 l/m 0 min 0 min 10 W/m 0,0 km/h (0 Bft) 100,00 %
16.11.2023 08:52 7,4 C 6,7 C 4,4 C 94 % 1014,8 hPa 0,0 l/m 0 min 0 min 11 W/m 0,0 km/h (0 Bft) 97,87 %
16.11.2023 08:54 7,4 C 6,7 C 4,4 C 94 % 1014,7 hPa 0,0 l/m 0 min 0 min 11 W/m 0,0 km/h (0 Bft) 97,87 %
16.11.2023 08:56 7,4 C 6,7 C 4,4 C 94 % 1014,8 hPa 0,0 l/m 0 min 0 min 14 W/m 0,0 km/h (0 Bft) 95,74 %
16.11.2023 08:58 7,4 C 6,7 C 4,4 C 94 % 1014,8 hPa 0,0 l/m 0 min 0 min 19 W/m 0,0 km/h (0 Bft) 93,62 %
16.11.2023 09:00 7,4 C 6,7 C 4,4 C 94 % 1014,7 hPa 0,0 l/m 0 min 0 min 22 W/m 0,0 km/h (0 Bft) 93,62 %
16.11.2023 09:02 7,4 C 7,2 C 4,4 C 94 % 1014,7 hPa 0,0 l/m 0 min 0 min 24 W/m 0,0 km/h (0 Bft) 93,62 %
16.11.2023 09:04 7,4 C 7,2 C 4,4 C 94 % 1014,8 hPa 0,0 l/m 0 min 0 min 22 W/m 0,0 km/h (0 Bft) 95,24 %
16.11.2023 09:08 7,4 C 7,2 C 4,4 C 94 % 1014,7 hPa 0,0 l/m 0 min 0 min 29 W/m 0,0 km/h (0 Bft) 95,19 %
16.11.2023 09:12 7,4 C 7,2 C 4,4 C 94 % 1014,7 hPa 0,0 l/m 0 min 0 min 46 W/m 0,0 km/h (0 Bft) 100,00 %
16.11.2023 09:14 7,4 C 7,2 C 4,4 C 94 % 1014,7 hPa 0,0 l/m 0 min 0 min 46 W/m 0,0 km/h (0 Bft) 93,33 %
16.11.2023 09:16 7,4 C 7,2 C 4,4 C 94 % 1014,7 hPa 0,0 l/m 0 min 0 min 53 W/m 0,0 km/h (0 Bft) 93,48 %
16.11.2023 09:18 7,4 C 7,2 C 4,4 C 94 % 1014,7 hPa 0,0 l/m 0 min 0 min 48 W/m 0,0 km/h (0 Bft) 95,74 %
16.11.2023 09:20 7,4 C 7,2 C 4,4 C 94 % 1014,7 hPa 0,0 l/m 0 min 0 min 51 W/m 0,0 km/h (0 Bft) 95,74 %
16.11.2023 09:22 7,5 C 7,8 C 5,0 C 94 % 1014,6 hPa 0,0 l/m 0 min 0 min 51 W/m 0,0 km/h (0 Bft) 93,62 %
16.11.2023 09:24 7,5 C 7,8 C 5,0 C 94 % 1014,6 hPa 0,0 l/m 0 min 0 min 50 W/m 0,0 km/h (0 Bft) 95,74 %
16.11.2023 09:26 7,5 C 7,8 C 5,0 C 94 % 1014,6 hPa 0,0 l/m 0 min 0 min 53 W/m 0,0 km/h (0 Bft) 93,62 %
16.11.2023 09:28 7,5 C 7,8 C 5,0 C 94 % 1014,6 hPa 0,0 l/m 0 min 0 min 55 W/m 0,0 km/h (0 Bft) 95,74 %
16.11.2023 09:30 7,6 C 7,8 C 5,0 C 94 % 1014,6 hPa 0,0 l/m 0 min 0 min 54 W/m 0,0 km/h (0 Bft) 93,48 %
16.11.2023 09:32 7,6 C 7,8 C 5,0 C 94 % 1014,6 hPa 0,0 l/m 0 min 0 min 53 W/m 3,2 km/h (1 Bft) 95,74 %
16.11.2023 09:34 7,6 C 7,8 C 5,0 C 94 % 1014,7 hPa 0,0 l/m 0 min 0 min 54 W/m 3,2 km/h (1 Bft) 93,62 %
16.11.2023 09:36 7,6 C 7,8 C 5,0 C 94 % 1014,7 hPa 0,0 l/m 0 min 0 min 54 W/m 3,2 km/h (1 Bft) 95,83 %
16.11.2023 09:38 7,6 C 7,8 C 5,0 C 94 % 1014,7 hPa 0,0 l/m 0 min 0 min 56 W/m 0,0 km/h (0 Bft) 95,74 %
16.11.2023 09:40 7,6 C 7,8 C 5,0 C 94 % 1014,7 hPa 0,0 l/m 0 min 0 min 56 W/m 0,0 km/h (0 Bft) 93,48 %
16.11.2023 09:42 7,6 C 7,8 C 5,0 C 94 % 1014,7 hPa 0,0 l/m 0 min 0 min 56 W/m 0,0 km/h (0 Bft) 95,74 %
16.11.2023 09:44 7,7 C 7,8 C 5,0 C 94 % 1014,7 hPa 0,0 l/m 0 min 0 min 55 W/m 3,2 km/h (1 Bft) 95,74 %
16.11.2023 09:46 7,7 C 7,8 C 5,0 C 94 % 1014,7 hPa 0,0 l/m 0 min 0 min 56 W/m 0,0 km/h (0 Bft) 95,74 %
16.11.2023 09:48 7,7 C 7,8 C 5,0 C 94 % 1014,8 hPa 0,0 l/m 0 min 0 min 59 W/m 3,2 km/h (1 Bft) 93,62 %
16.11.2023 09:50 7,7 C 7,8 C 5,0 C 94 % 1014,8 hPa 0,0 l/m 0 min 0 min 63 W/m 0,0 km/h (0 Bft) 97,87 %
16.11.2023 09:52 7,7 C 7,8 C 5,0 C 94 % 1014,7 hPa 0,0 l/m 0 min 0 min 64 W/m 0,0 km/h (0 Bft) 97,87 %
16.11.2023 09:54 7,7 C 7,8 C 5,0 C 94 % 1014,6 hPa 0,0 l/m 0 min 0 min 67 W/m 0,0 km/h (0 Bft) 97,83 %
16.11.2023 09:56 7,7 C 7,8 C 5,0 C 94 % 1014,6 hPa 0,0 l/m 0 min 0 min 68 W/m 0,0 km/h (0 Bft) 94,12 %
16.11.2023 09:58 7,8 C 7,8 C 5,0 C 94 % 1014,6 hPa 0,0 l/m 0 min 0 min 67 W/m 3,2 km/h (1 Bft) 97,83 %
16.11.2023 10:00 7,8 C 7,8 C 5,0 C 94 % 1014,6 hPa 0,0 l/m 0 min 0 min 65 W/m 3,2 km/h (1 Bft) 95,74 %
16.11.2023 10:02 7,8 C 7,8 C 5,0 C 94 % 1014,6 hPa 0,0 l/m 0 min 0 min 65 W/m 3,2 km/h (1 Bft) 95,74 %
16.11.2023 10:04 7,8 C 7,8 C 5,0 C 94 % 1014,6 hPa 0,0 l/m 0 min 0 min 67 W/m 3,2 km/h (1 Bft) 97,56 %
16.11.2023 10:10 7,8 C 7,8 C 5,0 C 94 % 1014,6 hPa 0,0 l/m 0 min 0 min 69 W/m 3,2 km/h (1 Bft) 99,33 %
16.11.2023 10:12 7,8 C 7,8 C 5,0 C 94 % 1014,5 hPa 0,0 l/m 0 min 0 min 69 W/m 0,0 km/h (0 Bft) 100,00 %
16.11.2023 10:14 7,9 C 7,8 C 5,0 C 94 % 1014,4 hPa 0,0 l/m 0 min 0 min 70 W/m 0,0 km/h (0 Bft) 100,00 %
16.11.2023 10:16 7,9 C 7,8 C 5,0 C 94 % 1014,4 hPa 0,0 l/m 0 min 0 min 71 W/m 0,0 km/h (0 Bft) 100,00 %
16.11.2023 10:18 7,9 C 7,8 C 5,0 C 94 % 1014,4 hPa 0,0 l/m 0 min 0 min 72 W/m 0,0 km/h (0 Bft) 100,00 %
16.11.2023 10:20 7,9 C 7,8 C 5,0 C 94 % 1014,3 hPa 0,0 l/m 0 min 0 min 71 W/m 0,0 km/h (0 Bft) 100,00 %
16.11.2023 10:22 7,9 C 7,8 C 5,0 C 93 % 1014,3 hPa 0,0 l/m 0 min 0 min 68 W/m 0,0 km/h (0 Bft) 100,00 %
16.11.2023 10:24 7,9 C 7,8 C 5,0 C 93 % 1014,4 hPa 0,0 l/m 0 min 0 min 68 W/m 0,0 km/h (0 Bft) 97,87 %
16.11.2023 10:26 7,9 C 7,8 C 5,0 C 93 % 1014,4 hPa 0,0 l/m 0 min 0 min 70 W/m 0,0 km/h (0 Bft) 100,00 %
16.11.2023 10:28 7,9 C 7,8 C 5,0 C 93 % 1014,3 hPa 0,0 l/m 0 min 0 min 72 W/m 0,0 km/h (0 Bft) 97,83 %
16.11.2023 10:30 7,9 C 7,8 C 5,0 C 93 % 1014,3 hPa 0,0 l/m 0 min 0 min 72 W/m 0,0 km/h (0 Bft) 97,87 %
16.11.2023 10:32 7,9 C 7,8 C 5,0 C 93 % 1014,2 hPa 0,0 l/m 0 min 0 min 70 W/m 0,0 km/h (0 Bft) 100,00 %
16.11.2023 10:34 7,9 C 7,8 C 5,0 C 93 % 1014,2 hPa 0,0 l/m 0 min 0 min 70 W/m 0,0 km/h (0 Bft) 97,87 %
16.11.2023 10:36 8,0 C 7,8 C 5,0 C 93 % 1014,2 hPa 0,0 l/m 0 min 0 min 75 W/m 0,0 km/h (0 Bft) 97,87 %
16.11.2023 10:38 8,0 C 7,8 C 5,0 C 93 % 1014,1 hPa 0,0 l/m 0 min 0 min 81 W/m 0,0 km/h (0 Bft) 100,00 %
16.11.2023 10:40 8,0 C 7,8 C 5,0 C 93 % 1014,1 hPa 0,0 l/m 0 min 0 min 86 W/m 0,0 km/h (0 Bft) 100,00 %
16.11.2023 10:42 8,0 C 7,8 C 5,0 C 93 % 1014,2 hPa 0,0 l/m 0 min 0 min 90 W/m 0,0 km/h (0 Bft) 100,00 %
16.11.2023 10:44 8,1 C 7,8 C 5,0 C 93 % 1014,2 hPa 0,0 l/m 0 min 0 min 93 W/m 6,4 km/h (2 Bft) 97,87 %
16.11.2023 10:46 8,1 C 7,8 C 5,0 C 93 % 1014,2 hPa 0,0 l/m 0 min 0 min 94 W/m 6,4 km/h (2 Bft) 100,00 %
16.11.2023 10:48 8,1 C 8,3 C 5,0 C 93 % 1014,2 hPa 0,0 l/m 0 min 0 min 96 W/m 6,4 km/h (2 Bft) 100,00 %
16.11.2023 10:50 8,1 C 8,3 C 5,6 C 93 % 1014,1 hPa 0,0 l/m 0 min 0 min 100 W/m 6,4 km/h (2 Bft) 100,00 %
16.11.2023 10:52 8,1 C 8,3 C 5,6 C 93 % 1014,1 hPa 0,0 l/m 0 min 0 min 104 W/m 3,2 km/h (1 Bft) 97,87 %
16.11.2023 10:54 8,1 C 8,3 C 5,6 C 93 % 1014,1 hPa 0,0 l/m 0 min 0 min 110 W/m 3,2 km/h (1 Bft) 95,74 %
16.11.2023 10:56 8,1 C 8,3 C 5,6 C 93 % 1014,1 hPa 0,0 l/m 0 min 0 min 116 W/m 3,2 km/h (1 Bft) 95,65 %
16.11.2023 10:58 8,2 C 8,3 C 5,6 C 93 % 1014,0 hPa 0,0 l/m 0 min 0 min 121 W/m 3,2 km/h (1 Bft) 100,00 %
16.11.2023 11:00 8,2 C 8,3 C 5,6 C 93 % 1014,0 hPa 0,0 l/m 0 min 0 min 121 W/m 6,4 km/h (2 Bft) 95,74 %
16.11.2023 11:02 8,2 C 8,3 C 5,6 C 93 % 1013,9 hPa 0,0 l/m 0 min 0 min 120 W/m 3,2 km/h (1 Bft) 97,87 %
16.11.2023 11:04 8,2 C 8,3 C 5,6 C 92 % 1013,9 hPa 0,0 l/m 0 min 0 min 121 W/m 3,2 km/h (1 Bft) 97,78 %
16.11.2023 11:08 8,2 C 8,3 C 5,6 C 93 % 1013,8 hPa 0,0 l/m 0 min 0 min 117 W/m 6,4 km/h (2 Bft) 97,12 %
16.11.2023 11:09 8,2 C 8,3 C 5,6 C 92 % 1013,8 hPa 0,0 l/m 0 min 0 min 107 W/m 6,4 km/h (2 Bft) 100,00 %
16.11.2023 11:10 8,2 C 8,3 C 5,6 C 92 % 1013,8 hPa 0,0 l/m 0 min 0 min 112 W/m 6,4 km/h (2 Bft) 99,12 %
16.11.2023 11:14 8,3 C 8,3 C 5,6 C 92 % 1013,7 hPa 0,0 l/m 0 min 0 min 96 W/m 0,0 km/h (0 Bft) 97,87 %
16.11.2023 11:16 8,3 C 8,3 C 5,6 C 92 % 1013,7 hPa 0,0 l/m 0 min 0 min 98 W/m 0,0 km/h (0 Bft) 97,87 %
16.11.2023 11:18 8,3 C 8,3 C 5,6 C 92 % 1013,7 hPa 0,0 l/m 0 min 0 min 100 W/m 0,0 km/h (0 Bft) 97,87 %
16.11.2023 11:20 8,3 C 8,3 C 5,6 C 92 % 1013,6 hPa 0,0 l/m 0 min 0 min 100 W/m 0,0 km/h (0 Bft) 97,87 %
16.11.2023 11:22 8,3 C 8,3 C 5,6 C 92 % 1013,6 hPa 0,0 l/m 0 min 0 min 99 W/m 0,0 km/h (0 Bft) 97,87 %
16.11.2023 11:24 8,3 C 8,3 C 5,6 C 92 % 1013,5 hPa 0,0 l/m 0 min 0 min 97 W/m 0,0 km/h (0 Bft) 97,87 %
16.11.2023 11:26 8,3 C 8,3 C 5,6 C 92 % 1013,5 hPa 0,0 l/m 0 min 0 min 95 W/m 0,0 km/h (0 Bft) 97,87 %
16.11.2023 11:28 8,3 C 8,3 C 5,6 C 91 % 1013,5 hPa 0,0 l/m 0 min 0 min 91 W/m 0,0 km/h (0 Bft) 97,96 %
16.11.2023 11:30 8,3 C 8,3 C 5,6 C 91 % 1013,5 hPa 0,0 l/m 0 min 0 min 89 W/m 0,0 km/h (0 Bft) 100,00 %
16.11.2023 11:32 8,3 C 8,3 C 5,6 C 92 % 1013,4 hPa 0,0 l/m 0 min 0 min 88 W/m 0,0 km/h (0 Bft) 100,00 %
16.11.2023 11:34 8,4 C 8,3 C 5,6 C 91 % 1013,4 hPa 0,0 l/m 0 min 0 min 90 W/m 0,0 km/h (0 Bft) 100,00 %
16.11.2023 11:36 8,4 C 8,3 C 5,6 C 91 % 1013,4 hPa 0,0 l/m 0 min 0 min 90 W/m 0,0 km/h (0 Bft) 100,00 %
16.11.2023 11:38 8,4 C 8,3 C 5,6 C 91 % 1013,4 hPa 0,0 l/m 0 min 0 min 89 W/m 6,4 km/h (2 Bft) 97,87 %
16.11.2023 11:40 8,4 C 8,3 C 5,6 C 91 % 1013,4 hPa 0,0 l/m 0 min 0 min 90 W/m 0,0 km/h (0 Bft) 100,00 %
16.11.2023 11:42 8,4 C 8,3 C 5,6 C 91 % 1013,4 hPa 0,0 l/m 0 min 0 min 90 W/m 3,2 km/h (1 Bft) 97,83 %
16.11.2023 11:44 8,4 C 8,3 C 5,6 C 91 % 1013,4 hPa 0,0 l/m 0 min 0 min 91 W/m 0,0 km/h (0 Bft) 97,87 %
16.11.2023 11:46 8,4 C 8,3 C 5,6 C 91 % 1013,5 hPa 0,0 l/m 0 min 0 min 89 W/m 3,2 km/h (1 Bft) 97,87 %
16.11.2023 11:48 8,4 C 8,3 C 5,6 C 91 % 1013,5 hPa 0,0 l/m 0 min 0 min 85 W/m 3,2 km/h (1 Bft) 91,49 %
16.11.2023 11:50 8,4 C 8,3 C 5,6 C 91 % 1013,4 hPa 0,0 l/m 0 min 0 min 81 W/m 0,0 km/h (0 Bft) 95,74 %
16.11.2023 11:52 8,4 C 8,3 C 5,6 C 91 % 1013,4 hPa 0,0 l/m 0 min 0 min 77 W/m 3,2 km/h (1 Bft) 93,62 %
16.11.2023 11:54 8,4 C 8,3 C 5,6 C 91 % 1013,4 hPa 0,0 l/m 0 min 0 min 73 W/m 3,2 km/h (1 Bft) 97,83 %
16.11.2023 11:56 8,5 C 8,3 C 5,6 C 91 % 1013,4 hPa 0,0 l/m 0 min 0 min 71 W/m 3,2 km/h (1 Bft) 97,87 %
16.11.2023 11:58 8,5 C 8,3 C 5,6 C 91 % 1013,3 hPa 0,0 l/m 0 min 0 min 69 W/m 6,4 km/h (2 Bft) 95,74 %
16.11.2023 12:00 8,5 C 8,3 C 5,6 C 91 % 1013,3 hPa 0,0 l/m 0 min 0 min 69 W/m 3,2 km/h (1 Bft) 97,87 %
16.11.2023 12:02 8,5 C 8,3 C 5,6 C 91 % 1013,2 hPa 0,0 l/m 0 min 0 min 69 W/m 3,2 km/h (1 Bft) 97,87 %
16.11.2023 12:04 8,5 C 8,3 C 5,6 C 91 % 1013,2 hPa 0,0 l/m 0 min 0 min 75 W/m 0,0 km/h (0 Bft) 95,65 %
16.11.2023 12:10 8,5 C 8,3 C 5,6 C 91 % 1013,0 hPa 0,0 l/m 0 min 0 min 99 W/m 0,0 km/h (0 Bft) 93,88 %
16.11.2023 12:12 8,6 C 8,3 C 5,6 C 91 % 1013,0 hPa 0,0 l/m 0 min 0 min 113 W/m 0,0 km/h (0 Bft) 95,74 %
16.11.2023 12:16 8,6 C 8,3 C 5,6 C 91 % 1013,0 hPa 0,0 l/m 0 min 0 min 108 W/m 0,0 km/h (0 Bft) 95,74 %
16.11.2023 12:18 8,6 C 8,3 C 5,6 C 91 % 1013,0 hPa 0,0 l/m 0 min 0 min 99 W/m 3,2 km/h (1 Bft) 93,62 %
16.11.2023 12:20 8,6 C 8,3 C 5,6 C 91 % 1013,0 hPa 0,0 l/m 0 min 0 min 95 W/m 3,2 km/h (1 Bft) 91,30 %
16.11.2023 12:22 8,6 C 8,3 C 5,6 C 91 % 1012,9 hPa 0,0 l/m 0 min 0 min 91 W/m 0,0 km/h (0 Bft) 95,74 %
16.11.2023 12:24 8,6 C 8,3 C 5,6 C 91 % 1012,8 hPa 0,0 l/m 0 min 0 min 86 W/m 0,0 km/h (0 Bft) 95,74 %
16.11.2023 12:26 8,6 C 8,3 C 5,6 C 91 % 1012,9 hPa 0,0 l/m 0 min 0 min 81 W/m 0,0 km/h (0 Bft) 95,74 %
16.11.2023 12:28 8,6 C 8,3 C 5,6 C 91 % 1012,9 hPa 0,0 l/m 0 min 0 min 77 W/m 0,0 km/h (0 Bft) 95,74 %
16.11.2023 12:30 8,7 C 8,3 C 5,6 C 91 % 1012,8 hPa 0,0 l/m 0 min 0 min 74 W/m 3,2 km/h (1 Bft) 95,74 %
16.11.2023 12:32 8,7 C 8,3 C 5,6 C 91 % 1012,8 hPa 0,0 l/m 0 min 0 min 71 W/m 0,0 km/h (0 Bft) 95,74 %
16.11.2023 12:34 8,7 C 8,3 C 5,6 C 90 % 1012,7 hPa 0,0 l/m 0 min 0 min 70 W/m 0,0 km/h (0 Bft) 97,83 %
16.11.2023 12:36 8,7 C 8,3 C 5,6 C 90 % 1012,7 hPa 0,0 l/m 0 min 0 min 69 W/m 3,2 km/h (1 Bft) 95,74 %
16.11.2023 12:38 8,7 C 8,3 C 5,6 C 90 % 1012,7 hPa 0,0 l/m 0 min 0 min 66 W/m 0,0 km/h (0 Bft) 95,74 %
16.11.2023 12:40 8,7 C 8,3 C 5,6 C 90 % 1012,5 hPa 0,0 l/m 0 min 0 min 63 W/m 0,0 km/h (0 Bft) 97,87 %
16.11.2023 12:42 8,7 C 8,3 C 5,6 C 90 % 1012,5 hPa 0,0 l/m 0 min 0 min 61 W/m 3,2 km/h (1 Bft) 97,87 %
16.11.2023 12:44 8,7 C 8,3 C 5,0 C 90 % 1012,5 hPa 0,0 l/m 0 min 0 min 58 W/m 3,2 km/h (1 Bft) 97,87 %
16.11.2023 12:46 8,7 C 8,3 C 5,0 C 91 % 1012,4 hPa 0,0 l/m 0 min 0 min 55 W/m 6,4 km/h (2 Bft) 97,30 %
16.11.2023 12:48 8,7 C 8,3 C 5,0 C 91 % 1012,4 hPa 0,0 l/m 0 min 0 min 54 W/m 0,0 km/h (0 Bft) 97,87 %
16.11.2023 12:50 8,7 C 8,3 C 5,0 C 91 % 1012,4 hPa 0,0 l/m 0 min 0 min 53 W/m 0,0 km/h (0 Bft) 54,55 %
16.11.2023 12:52 8,7 C 8,3 C 5,0 C 91 % 1012,3 hPa 0,0 l/m 0 min 0 min 53 W/m 0,0 km/h (0 Bft) 95,65 %
16.11.2023 12:54 8,7 C 8,3 C 5,0 C 91 % 1012,3 hPa 0,0 l/m 0 min 0 min 54 W/m 0,0 km/h (0 Bft) 97,92 %
16.11.2023 12:56 8,7 C 8,3 C 5,0 C 91 % 1012,3 hPa 0,0 l/m 0 min 0 min 53 W/m 3,2 km/h (1 Bft) 95,74 %
16.11.2023 12:58 8,7 C 8,3 C 5,0 C 91 % 1012,2 hPa 0,0 l/m 0 min 0 min 51 W/m 0,0 km/h (0 Bft) 95,74 %
16.11.2023 13:00 8,7 C 8,3 C 5,0 C 91 % 1012,2 hPa 0,0 l/m 0 min 0 min 48 W/m 0,0 km/h (0 Bft) 95,74 %
16.11.2023 13:02 8,7 C 7,8 C 5,0 C 91 % 1012,1 hPa 0,0 l/m 0 min 0 min 47 W/m 3,2 km/h (1 Bft) 97,87 %
16.11.2023 13:04 8,6 C 7,8 C 5,0 C 91 % 1012,1 hPa 0,0 l/m 0 min 0 min 46 W/m 0,0 km/h (0 Bft) 95,92 %
16.11.2023 13:08 8,6 C 7,8 C 5,0 C 91 % 1012,0 hPa 0,0 l/m 0 min 0 min 44 W/m 0,0 km/h (0 Bft) 97,96 %
16.11.2023 13:10 8,6 C 7,8 C 5,0 C 91 % 1012,0 hPa 0,0 l/m 0 min 0 min 44 W/m 0,0 km/h (0 Bft) 97,87 %
16.11.2023 13:12 8,6 C 7,8 C 5,0 C 91 % 1011,9 hPa 0,0 l/m 0 min 0 min 46 W/m 0,0 km/h (0 Bft) 95,74 %
16.11.2023 13:14 8,6 C 7,8 C 5,0 C 91 % 1011,8 hPa 0,0 l/m 0 min 0 min 46 W/m 3,2 km/h (1 Bft) 100,00 %
16.11.2023 13:16 8,6 C 7,8 C 5,0 C 91 % 1011,8 hPa 0,0 l/m 0 min 0 min 46 W/m 0,0 km/h (0 Bft) 97,87 %
16.11.2023 13:18 8,5 C 7,8 C 5,0 C 91 % 1011,7 hPa 0,0 l/m 0 min 0 min 46 W/m 0,0 km/h (0 Bft) 95,65 %
16.11.2023 13:20 8,5 C 7,8 C 5,0 C 91 % 1011,7 hPa 0,0 l/m 0 min 0 min 47 W/m 3,2 km/h (1 Bft) 97,87 %
16.11.2023 13:22 8,5 C 7,8 C 5,0 C 91 % 1011,6 hPa 0,0 l/m 0 min 0 min 47 W/m 0,0 km/h (0 Bft) 97,87 %
16.11.2023 13:24 8,5 C 7,8 C 5,0 C 91 % 1011,5 hPa 0,0 l/m 0 min 0 min 47 W/m 0,0 km/h (0 Bft) 95,74 %
16.11.2023 13:26 8,4 C 7,8 C 5,0 C 91 % 1011,5 hPa 0,0 l/m 0 min 0 min 47 W/m 0,0 km/h (0 Bft) 97,87 %
16.11.2023 13:28 8,4 C 7,8 C 5,0 C 91 % 1011,4 hPa 0,0 l/m 0 min 0 min 47 W/m 0,0 km/h (0 Bft) 100,00 %
16.11.2023 13:30 8,4 C 7,8 C 5,0 C 91 % 1011,4 hPa 0,0 l/m 0 min 0 min 46 W/m 0,0 km/h (0 Bft) 100,00 %
16.11.2023 13:32 8,4 C 7,8 C 5,0 C 91 % 1011,3 hPa 0,0 l/m 0 min 0 min 44 W/m 0,0 km/h (0 Bft) 100,00 %
16.11.2023 13:34 8,4 C 7,8 C 5,0 C 91 % 1011,3 hPa 0,0 l/m 0 min 0 min 43 W/m 0,0 km/h (0 Bft) 100,00 %
16.11.2023 13:36 8,4 C 7,8 C 5,0 C 92 % 1011,2 hPa 0,0 l/m 0 min 0 min 42 W/m 0,0 km/h (0 Bft) 100,00 %
16.11.2023 13:38 8,4 C 7,8 C 5,0 C 92 % 1011,1 hPa 0,0 l/m 0 min 0 min 44 W/m 0,0 km/h (0 Bft) 100,00 %
16.11.2023 13:40 8,4 C 7,8 C 5,0 C 92 % 1011,1 hPa 0,0 l/m 0 min 0 min 46 W/m 0,0 km/h (0 Bft) 100,00 %
16.11.2023 13:42 8,3 C 7,8 C 5,0 C 92 % 1011,0 hPa 0,0 l/m 0 min 0 min 48 W/m 0,0 km/h (0 Bft) 100,00 %
16.11.2023 13:44 8,3 C 7,8 C 5,0 C 92 % 1010,9 hPa 0,0 l/m 0 min 0 min 50 W/m 0,0 km/h (0 Bft) 100,00 %
16.11.2023 13:46 8,3 C 7,8 C 5,0 C 92 % 1010,9 hPa 0,0 l/m 0 min 0 min 52 W/m 0,0 km/h (0 Bft) 95,65 %
16.11.2023 13:48 8,3 C 7,8 C 5,0 C 92 % 1010,8 hPa 0,0 l/m 0 min 0 min 53 W/m 0,0 km/h (0 Bft) 100,00 %
16.11.2023 13:50 8,3 C 7,8 C 5,0 C 92 % 1010,8 hPa 0,0 l/m 0 min 0 min 53 W/m 0,0 km/h (0 Bft) 100,00 %
16.11.2023 13:52 8,3 C 7,8 C 5,0 C 92 % 1010,9 hPa 0,0 l/m 0 min 0 min 51 W/m 0,0 km/h (0 Bft) 100,00 %
16.11.2023 13:54 8,3 C 7,8 C 5,0 C 91 % 1010,8 hPa 0,0 l/m 0 min 0 min 47 W/m 0,0 km/h (0 Bft) 100,00 %
16.11.2023 13:56 8,3 C 7,8 C 5,0 C 92 % 1010,8 hPa 0,0 l/m 0 min 0 min 46 W/m 0,0 km/h (0 Bft) 100,00 %
16.11.2023 13:58 8,3 C 7,8 C 5,0 C 92 % 1010,8 hPa 0,0 l/m 0 min 0 min 44 W/m 0,0 km/h (0 Bft) 100,00 %
16.11.2023 14:00 8,3 C 7,8 C 5,0 C 92 % 1010,8 hPa 0,0 l/m 0 min 0 min 41 W/m 0,0 km/h (0 Bft) 97,87 %
16.11.2023 14:02 8,3 C 7,8 C 5,0 C 92 % 1010,8 hPa 0,0 l/m 0 min 0 min 40 W/m 0,0 km/h (0 Bft) 100,00 %
16.11.2023 14:04 8,3 C 7,8 C 5,0 C 92 % 1010,7 hPa 0,0 l/m 0 min 0 min 39 W/m 0,0 km/h (0 Bft) 100,00 %
16.11.2023 14:08 8,3 C 7,8 C 5,0 C 92 % 1010,7 hPa 0,0 l/m 0 min 0 min 37 W/m 0,0 km/h (0 Bft) 100,00 %
16.11.2023 14:09 8,3 C 7,8 C 5,0 C 92 % 1010,6 hPa 0,0 l/m 0 min 0 min 39 W/m 0,0 km/h (0 Bft) 100,00 %
16.11.2023 14:10 8,3 C 7,8 C 5,0 C 92 % 1010,6 hPa 0,0 l/m 0 min 0 min 38 W/m 0,0 km/h (0 Bft) 100,00 %
16.11.2023 14:14 8,3 C 7,8 C 5,0 C 92 % 1010,6 hPa 0,0 l/m 0 min 0 min 42 W/m 0,0 km/h (0 Bft) 100,00 %
16.11.2023 14:16 8,3 C 7,8 C 5,0 C 92 % 1010,6 hPa 0,0 l/m 0 min 0 min 42 W/m 0,0 km/h (0 Bft) 100,00 %
16.11.2023 14:18 8,3 C 7,8 C 5,0 C 92 % 1010,6 hPa 0,0 l/m 0 min 0 min 44 W/m 0,0 km/h (0 Bft) 100,00 %
16.11.2023 14:20 8,3 C 7,8 C 5,0 C 92 % 1010,6 hPa 0,0 l/m 0 min 0 min 44 W/m 0,0 km/h (0 Bft) 100,00 %
16.11.2023 14:22 8,3 C 7,8 C 5,0 C 92 % 1010,6 hPa 0,0 l/m 0 min 0 min 44 W/m 0,0 km/h (0 Bft) 97,87 %
16.11.2023 14:24 8,3 C 7,8 C 5,0 C 92 % 1010,5 hPa 0,0 l/m 0 min 0 min 44 W/m 0,0 km/h (0 Bft) 100,00 %
16.11.2023 14:26 8,3 C 7,8 C 5,0 C 92 % 1010,5 hPa 0,0 l/m 0 min 0 min 45 W/m 0,0 km/h (0 Bft) 97,83 %
16.11.2023 14:28 8,3 C 7,8 C 5,0 C 92 % 1010,4 hPa 0,0 l/m 0 min 0 min 46 W/m 0,0 km/h (0 Bft) 97,87 %
16.11.2023 14:30 8,3 C 7,8 C 5,0 C 92 % 1010,4 hPa 0,0 l/m 0 min 0 min 46 W/m 0,0 km/h (0 Bft) 97,87 %
16.11.2023 14:32 8,3 C 7,8 C 5,0 C 93 % 1010,4 hPa 0,0 l/m 0 min 0 min 47 W/m 0,0 km/h (0 Bft) 97,87 %
16.11.2023 14:34 8,3 C 7,8 C 5,0 C 93 % 1010,4 hPa 0,0 l/m 0 min 0 min 48 W/m 0,0 km/h (0 Bft) 97,87 %
16.11.2023 14:36 8,3 C 7,8 C 5,0 C 93 % 1010,4 hPa 0,0 l/m 0 min 0 min 49 W/m 0,0 km/h (0 Bft) 95,74 %
16.11.2023 14:38 8,3 C 7,8 C 5,0 C 93 % 1010,4 hPa 0,0 l/m 0 min 0 min 49 W/m 0,0 km/h (0 Bft) 97,87 %
16.11.2023 14:40 8,2 C 7,8 C 5,0 C 93 % 1010,3 hPa 0,0 l/m 0 min 0 min 49 W/m 3,2 km/h (1 Bft) 95,65 %
16.11.2023 14:42 8,2 C 7,8 C 5,0 C 93 % 1010,3 hPa 0,0 l/m 0 min 0 min 49 W/m 3,2 km/h (1 Bft) 95,74 %
16.11.2023 14:44 8,2 C 7,8 C 5,0 C 93 % 1010,3 hPa 0,0 l/m 0 min 0 min 48 W/m 3,2 km/h (1 Bft) 95,74 %
16.11.2023 14:46 8,2 C 7,8 C 5,0 C 93 % 1010,2 hPa 0,0 l/m 0 min 0 min 46 W/m 3,2 km/h (1 Bft) 97,87 %
16.11.2023 14:48 8,2 C 7,8 C 5,0 C 93 % 1010,3 hPa 0,0 l/m 0 min 0 min 43 W/m 0,0 km/h (0 Bft) 97,14 %
16.11.2023 14:50 8,2 C 7,8 C 5,0 C 93 % 1010,3 hPa 0,0 l/m 0 min 0 min 41 W/m 0,0 km/h (0 Bft) 98,31 %
16.11.2023 14:52 8,2 C 7,8 C 5,0 C 93 % 1010,3 hPa 0,0 l/m 0 min 0 min 38 W/m 6,4 km/h (2 Bft) 94,29 %
16.11.2023 14:54 8,2 C 7,8 C 5,0 C 93 % 1010,2 hPa 0,0 l/m 0 min 0 min 36 W/m 0,0 km/h (0 Bft) 94,34 %
16.11.2023 14:56 8,2 C 7,8 C 5,0 C 93 % 1010,2 hPa 0,0 l/m 0 min 0 min 35 W/m 3,2 km/h (1 Bft) 91,49 %
16.11.2023 14:58 8,2 C 7,8 C 5,0 C 93 % 1010,2 hPa 0,0 l/m 0 min 0 min 33 W/m 3,2 km/h (1 Bft) 93,62 %
16.11.2023 15:00 8,2 C 7,8 C 5,0 C 93 % 1010,2 hPa 0,0 l/m 0 min 0 min 33 W/m 0,0 km/h (0 Bft) 91,49 %
16.11.2023 15:02 8,2 C 8,3 C 5,0 C 93 % 1010,2 hPa 0,0 l/m 0 min 0 min 32 W/m 3,2 km/h (1 Bft) 93,62 %
16.11.2023 15:04 8,3 C 8,3 C 5,0 C 93 % 1010,2 hPa 0,0 l/m 0 min 0 min 32 W/m 0,0 km/h (0 Bft) 91,30 %
16.11.2023 15:08 8,3 C 8,3 C 5,0 C 93 % 1010,2 hPa 0,0 l/m 0 min 0 min 32 W/m 3,2 km/h (1 Bft) 93,62 %
16.11.2023 15:10 8,4 C 8,3 C 5,0 C 93 % 1010,2 hPa 0,0 l/m 0 min 0 min 32 W/m 3,2 km/h (1 Bft) 93,48 %
16.11.2023 15:12 8,4 C 8,3 C 5,0 C 93 % 1010,1 hPa 0,0 l/m 0 min 0 min 32 W/m 3,2 km/h (1 Bft) 93,62 %
16.11.2023 15:14 8,4 C 8,3 C 5,0 C 93 % 1010,2 hPa 0,0 l/m 0 min 0 min 32 W/m 0,0 km/h (0 Bft) 93,62 %
16.11.2023 15:16 8,4 C 8,9 C 5,0 C 93 % 1010,2 hPa 0,0 l/m 0 min 0 min 32 W/m 0,0 km/h (0 Bft) 95,74 %
16.11.2023 15:18 8,5 C 8,9 C 5,0 C 93 % 1010,2 hPa 0,0 l/m 0 min 0 min 30 W/m 0,0 km/h (0 Bft) 91,49 %
16.11.2023 15:20 8,5 C 8,9 C 5,0 C 93 % 1010,2 hPa 0,0 l/m 0 min 0 min 30 W/m 3,2 km/h (1 Bft) 95,74 %
16.11.2023 15:22 8,5 C 8,9 C 5,0 C 93 % 1010,2 hPa 0,0 l/m 0 min 0 min 28 W/m 3,2 km/h (1 Bft) 95,74 %
16.11.2023 15:24 8,5 C 8,9 C 5,0 C 93 % 1010,2 hPa 0,0 l/m 0 min 0 min 27 W/m 3,2 km/h (1 Bft) 97,83 %
16.11.2023 15:26 8,5 C 8,9 C 5,0 C 93 % 1010,3 hPa 0,0 l/m 0 min 0 min 26 W/m 0,0 km/h (0 Bft) 95,74 %
16.11.2023 15:28 8,5 C 8,3 C 5,0 C 93 % 1010,3 hPa 0,0 l/m 0 min 0 min 24 W/m 3,2 km/h (1 Bft) 89,36 %
16.11.2023 15:30 8,5 C 8,3 C 5,0 C 93 % 1010,3 hPa 0,0 l/m 0 min 0 min 21 W/m 0,0 km/h (0 Bft) 97,87 %
16.11.2023 15:32 8,5 C 8,3 C 5,0 C 93 % 1010,3 hPa 0,0 l/m 0 min 0 min 19 W/m 0,0 km/h (0 Bft) 97,87 %
16.11.2023 15:34 8,6 C 8,3 C 4,4 C 93 % 1010,3 hPa 0,0 l/m 0 min 0 min 16 W/m 3,2 km/h (1 Bft) 97,87 %
16.11.2023 15:36 8,5 C 8,3 C 4,4 C 93 % 1010,3 hPa 0,0 l/m 0 min 0 min 14 W/m 0,0 km/h (0 Bft) 97,87 %
16.11.2023 15:38 8,5 C 8,3 C 4,4 C 93 % 1010,3 hPa 0,0 l/m 0 min 0 min 12 W/m 3,2 km/h (1 Bft) 97,83 %
16.11.2023 15:40 8,5 C 8,3 C 4,4 C 93 % 1010,2 hPa 0,0 l/m 0 min 0 min 11 W/m 0,0 km/h (0 Bft) 93,62 %
16.11.2023 15:42 8,5 C 8,3 C 4,4 C 93 % 1010,3 hPa 0,0 l/m 0 min 0 min 11 W/m 0,0 km/h (0 Bft) 97,87 %
16.11.2023 15:44 8,4 C 8,3 C 4,4 C 93 % 1010,3 hPa 0,0 l/m 0 min 0 min 11 W/m 3,2 km/h (1 Bft) 97,87 %
16.11.2023 15:46 8,4 C 8,3 C 4,4 C 93 % 1010,3 hPa 0,0 l/m 0 min 0 min 11 W/m 0,0 km/h (0 Bft) 100,00 %
16.11.2023 15:48 8,4 C 8,3 C 4,4 C 93 % 1010,3 hPa 0,0 l/m 0 min 0 min 10 W/m 0,0 km/h (0 Bft) 95,74 %
16.11.2023 15:50 8,4 C 8,3 C 4,4 C 93 % 1010,3 hPa 0,0 l/m 0 min 0 min 11 W/m 0,0 km/h (0 Bft) 97,87 %
16.11.2023 15:52 8,4 C 8,3 C 4,4 C 93 % 1010,3 hPa 0,0 l/m 0 min 0 min 11 W/m 0,0 km/h (0 Bft) 100,00 %
16.11.2023 15:54 8,4 C 8,3 C 4,4 C 93 % 1010,4 hPa 0,0 l/m 0 min 0 min 11 W/m 0,0 km/h (0 Bft) 100,00 %
16.11.2023 15:56 8,4 C 8,3 C 4,4 C 93 % 1010,3 hPa 0,0 l/m 0 min 0 min 11 W/m 3,2 km/h (1 Bft) 97,83 %
16.11.2023 15:58 8,4 C 8,3 C 4,4 C 93 % 1010,4 hPa 0,0 l/m 0 min 0 min 11 W/m 0,0 km/h (0 Bft) 97,87 %
16.11.2023 16:00 8,4 C 8,3 C 4,4 C 93 % 1010,4 hPa 0,0 l/m 0 min 0 min 11 W/m 3,2 km/h (1 Bft) 100,00 %
16.11.2023 16:02 8,4 C 8,3 C 4,4 C 93 % 1010,4 hPa 0,0 l/m 0 min 0 min 10 W/m 0,0 km/h (0 Bft) 97,87 %
16.11.2023 16:04 8,4 C 7,8 C 4,4 C 93 % 1010,5 hPa 0,0 l/m 0 min 0 min 9 W/m 3,2 km/h (1 Bft) 97,06 %
16.11.2023 16:08 8,3 C 7,8 C 4,4 C 93 % 1010,5 hPa 0,0 l/m 0 min 0 min 9 W/m 0,0 km/h (0 Bft) 99,04 %
16.11.2023 16:09 8,3 C 7,8 C 4,4 C 93 % 1010,5 hPa 0,0 l/m 0 min 0 min 9 W/m 3,2 km/h (1 Bft) 100,00 %
16.11.2023 16:10 8,3 C 7,8 C 4,4 C 93 % 1010,5 hPa 0,0 l/m 0 min 0 min 9 W/m 3,2 km/h (1 Bft) 100,00 %
16.11.2023 16:14 8,3 C 7,8 C 4,4 C 93 % 1010,6 hPa 0,0 l/m 0 min 0 min 7 W/m 0,0 km/h (0 Bft) 100,00 %
16.11.2023 16:16 8,3 C 7,8 C 4,4 C 93 % 1010,5 hPa 0,0 l/m 0 min 0 min 7 W/m 0,0 km/h (0 Bft) 97,87 %
16.11.2023 16:18 8,3 C 7,8 C 4,4 C 93 % 1010,5 hPa 0,0 l/m 0 min 0 min 7 W/m 3,2 km/h (1 Bft) 97,87 %
16.11.2023 16:20 8,3 C 7,8 C 4,4 C 93 % 1010,5 hPa 0,0 l/m 0 min 0 min 7 W/m 6,4 km/h (2 Bft) 100,00 %
16.11.2023 16:22 8,3 C 7,8 C 4,4 C 93 % 1010,6 hPa 0,0 l/m 0 min 0 min 5 W/m 3,2 km/h (1 Bft) 100,00 %
16.11.2023 16:24 8,3 C 7,8 C 4,4 C 93 % 1010,6 hPa 0,0 l/m 0 min 0 min 5 W/m 0,0 km/h (0 Bft) 100,00 %
16.11.2023 16:26 8,3 C 7,8 C 4,4 C 93 % 1010,5 hPa 0,0 l/m 0 min 0 min 5 W/m 3,2 km/h (1 Bft) 95,74 %
16.11.2023 16:28 8,3 C 7,8 C 4,4 C 93 % 1010,5 hPa 0,0 l/m 0 min 0 min 5 W/m 3,2 km/h (1 Bft) 100,00 %
16.11.2023 16:30 8,3 C 7,8 C 4,4 C 93 % 1010,5 hPa 0,0 l/m 0 min 0 min 0 W/m 0,0 km/h (0 Bft) 100,00 %
16.11.2023 16:32 8,3 C 7,8 C 4,4 C 93 % 1010,5 hPa 0,0 l/m 0 min 0 min 0 W/m 3,2 km/h (1 Bft) 100,00 %
16.11.2023 16:34 8,3 C 7,8 C 4,4 C 93 % 1010,5 hPa 0,0 l/m 0 min 0 min 0 W/m 0,0 km/h (0 Bft) 100,00 %
16.11.2023 16:36 8,2 C 7,8 C 4,4 C 93 % 1010,5 hPa 0,0 l/m 0 min 0 min 0 W/m 0,0 km/h (0 Bft) 97,87 %
16.11.2023 16:38 8,2 C 7,8 C 4,4 C 93 % 1010,5 hPa 0,0 l/m 0 min 0 min 0 W/m 0,0 km/h (0 Bft) 100,00 %
16.11.2023 16:40 8,2 C 7,8 C 4,4 C 93 % 1010,4 hPa 0,0 l/m 0 min 0 min 0 W/m 3,2 km/h (1 Bft) 97,87 %
16.11.2023 16:42 8,2 C 7,8 C 4,4 C 93 % 1010,4 hPa 0,0 l/m 0 min 0 min 0 W/m 6,4 km/h (2 Bft) 91,49 %
16.11.2023 16:44 8,2 C 7,8 C 4,4 C 93 % 1010,5 hPa 0,0 l/m 0 min 0 min 0 W/m 3,2 km/h (1 Bft) 97,87 %
16.11.2023 16:46 8,2 C 7,8 C 4,4 C 93 % 1010,4 hPa 0,0 l/m 0 min 0 min 0 W/m 3,2 km/h (1 Bft) 97,87 %
16.11.2023 16:48 8,2 C 7,8 C 4,4 C 93 % 1010,4 hPa 0,0 l/m 0 min 0 min 0 W/m 3,2 km/h (1 Bft) 95,65 %
16.11.2023 16:50 8,2 C 7,2 C 4,4 C 93 % 1010,4 hPa 0,0 l/m 0 min 0 min 0 W/m 3,2 km/h (1 Bft) 97,87 %
16.11.2023 16:52 8,1 C 7,2 C 4,4 C 93 % 1010,4 hPa 0,0 l/m 0 min 0 min 0 W/m 3,2 km/h (1 Bft) 97,87 %
16.11.2023 16:54 8,1 C 7,2 C 4,4 C 93 % 1010,4 hPa 0,0 l/m 0 min 0 min 0 W/m 3,2 km/h (1 Bft) 98,21 %
16.11.2023 16:56 8,1 C 7,2 C 4,4 C 93 % 1010,4 hPa 0,0 l/m 0 min 0 min 0 W/m 0,0 km/h (0 Bft) 97,87 %
16.11.2023 16:58 8,1 C 7,8 C 4,4 C 93 % 1010,4 hPa 0,0 l/m 0 min 0 min 0 W/m 3,2 km/h (1 Bft) 93,62 %
16.11.2023 17:00 8,1 C 7,2 C 4,4 C 94 % 1010,4 hPa 0,0 l/m 0 min 0 min 0 W/m 3,2 km/h (1 Bft) 93,62 %
16.11.2023 17:02 8,1 C 7,2 C 4,4 C 94 % 1010,4 hPa 0,0 l/m 0 min 0 min 0 W/m 3,2 km/h (1 Bft) 97,87 %
16.11.2023 17:04 8,1 C 7,2 C 4,4 C 94 % 1010,4 hPa 0,0 l/m 0 min 0 min 0 W/m 3,2 km/h (1 Bft) 97,78 %
16.11.2023 17:08 8,1 C 7,2 C 4,4 C 94 % 1010,4 hPa 0,0 l/m 0 min 0 min 0 W/m 3,2 km/h (1 Bft) 97,03 %
16.11.2023 17:09 8,1 C 7,2 C 4,4 C 94 % 1010,4 hPa 0,0 l/m 0 min 0 min 0 W/m 3,2 km/h (1 Bft) 100,00 %
16.11.2023 17:12 8,0 C 7,2 C 4,4 C 94 % 1010,4 hPa 0,0 l/m 0 min 0 min 0 W/m 9,7 km/h (2 Bft) 98,28 %
16.11.2023 17:14 8,0 C 7,2 C 4,4 C 94 % 1010,4 hPa 0,0 l/m 0 min 0 min 0 W/m 3,2 km/h (1 Bft) 100,00 %
16.11.2023 17:16 7,9 C 7,2 C 4,4 C 94 % 1010,4 hPa 0,0 l/m 0 min 0 min 0 W/m 6,4 km/h (2 Bft) 100,00 %
16.11.2023 17:18 7,9 C 7,2 C 4,4 C 94 % 1010,4 hPa 0,0 l/m 0 min 0 min 0 W/m 3,2 km/h (1 Bft) 100,00 %
16.11.2023 17:20 7,9 C 7,2 C 4,4 C 94 % 1010,4 hPa 0,0 l/m 0 min 0 min 0 W/m 3,2 km/h (1 Bft) 97,87 %
16.11.2023 17:22 7,9 C 7,2 C 4,4 C 94 % 1010,4 hPa 0,0 l/m 0 min 0 min 0 W/m 6,4 km/h (2 Bft) 100,00 %
16.11.2023 17:24 7,9 C 7,2 C 4,4 C 94 % 1010,4 hPa 0,0 l/m 0 min 0 min 0 W/m 6,4 km/h (2 Bft) 100,00 %
16.11.2023 17:26 7,9 C 7,2 C 4,4 C 94 % 1010,4 hPa 0,0 l/m 0 min 0 min 0 W/m 3,2 km/h (1 Bft) 100,00 %
16.11.2023 17:28 7,8 C 7,2 C 4,4 C 94 % 1010,4 hPa 0,0 l/m 0 min 0 min 0 W/m 6,4 km/h (2 Bft) 100,00 %
16.11.2023 17:30 7,8 C 7,2 C 4,4 C 94 % 1010,4 hPa 0,0 l/m 0 min 0 min 0 W/m 6,4 km/h (2 Bft) 97,87 %
16.11.2023 17:32 7,8 C 7,2 C 4,4 C 94 % 1010,4 hPa 0,0 l/m 0 min 0 min 0 W/m 16,1 km/h (3 Bft) 100,00 %
16.11.2023 17:34 7,8 C 7,2 C 4,4 C 94 % 1010,4 hPa 0,0 l/m 0 min 0 min 0 W/m 6,4 km/h (2 Bft) 100,00 %
16.11.2023 17:36 7,8 C 7,2 C 4,4 C 94 % 1010,4 hPa 0,0 l/m 0 min 0 min 0 W/m 3,2 km/h (1 Bft) 100,00 %
16.11.2023 17:38 7,8 C 7,2 C 4,4 C 94 % 1010,4 hPa 0,0 l/m 0 min 0 min 0 W/m 12,9 km/h (3 Bft) 95,65 %
16.11.2023 17:40 7,8 C 7,2 C 4,4 C 94 % 1010,4 hPa 0,0 l/m 0 min 0 min 0 W/m 6,4 km/h (2 Bft) 97,87 %
16.11.2023 17:42 7,7 C 7,2 C 4,4 C 94 % 1010,4 hPa 0,0 l/m 0 min 0 min 0 W/m 12,9 km/h (3 Bft) 93,62 %
16.11.2023 17:44 7,7 C 7,2 C 4,4 C 94 % 1010,4 hPa 0,0 l/m 0 min 0 min 0 W/m 19,3 km/h (3 Bft) 95,74 %
16.11.2023 17:46 7,7 C 7,2 C 4,4 C 94 % 1010,4 hPa 0,0 l/m 0 min 0 min 0 W/m 3,2 km/h (1 Bft) 95,74 %
16.11.2023 17:48 7,7 C 7,2 C 4,4 C 94 % 1010,4 hPa 0,0 l/m 0 min 0 min 0 W/m 6,4 km/h (2 Bft) 93,62 %
16.11.2023 17:50 7,7 C 7,2 C 3,9 C 94 % 1010,4 hPa 0,0 l/m 0 min 0 min 0 W/m 3,2 km/h (1 Bft) 95,74 %
16.11.2023 17:52 7,7 C 7,2 C 3,9 C 94 % 1010,4 hPa 0,0 l/m 0 min 0 min 0 W/m 3,2 km/h (1 Bft) 93,48 %
16.11.2023 17:54 7,7 C 7,2 C 3,9 C 94 % 1010,5 hPa 0,0 l/m 0 min 0 min 0 W/m 3,2 km/h (1 Bft) 95,74 %
16.11.2023 17:56 7,7 C 7,2 C 3,9 C 94 % 1010,5 hPa 0,0 l/m 0 min 0 min 0 W/m 6,4 km/h (2 Bft) 95,74 %
16.11.2023 17:58 7,7 C 7,2 C 3,9 C 94 % 1010,5 hPa 0,0 l/m 0 min 0 min 0 W/m 3,2 km/h (1 Bft) 95,74 %
16.11.2023 18:00 7,6 C 7,2 C 3,9 C 94 % 1010,5 hPa 0,0 l/m 0 min 0 min 0 W/m 12,9 km/h (3 Bft) 93,62 %
16.11.2023 18:02 7,6 C 7,2 C 3,9 C 94 % 1010,6 hPa 0,0 l/m 0 min 0 min 0 W/m 9,7 km/h (2 Bft) 95,74 %
16.11.2023 18:04 7,6 C 7,2 C 3,9 C 94 % 1010,6 hPa 0,0 l/m 0 min 0 min 0 W/m 9,7 km/h (2 Bft) 95,24 %
16.11.2023 18:10 7,6 C 7,2 C 3,9 C 94 % 1010,6 hPa 0,0 l/m 0 min 0 min 0 W/m 3,2 km/h (1 Bft) 94,29 %
16.11.2023 18:12 7,6 C 7,2 C 3,9 C 94 % 1010,6 hPa 0,0 l/m 0 min 0 min 0 W/m 16,1 km/h (3 Bft) 93,62 %
16.11.2023 18:16 7,6 C 6,7 C 3,9 C 94 % 1010,7 hPa 0,0 l/m 0 min 0 min 0 W/m 12,9 km/h (3 Bft) 93,62 %
16.11.2023 18:18 7,6 C 6,7 C 3,9 C 94 % 1010,7 hPa 0,0 l/m 0 min 0 min 0 W/m 3,2 km/h (1 Bft) 95,65 %
16.11.2023 18:20 7,6 C 6,7 C 3,9 C 94 % 1010,7 hPa 0,0 l/m 0 min 0 min 0 W/m 3,2 km/h (1 Bft) 95,74 %
16.11.2023 18:22 7,6 C 6,7 C 3,9 C 94 % 1010,7 hPa 0,0 l/m 0 min 0 min 0 W/m 3,2 km/h (1 Bft) 97,87 %
16.11.2023 18:24 7,6 C 6,7 C 3,9 C 94 % 1010,7 hPa 0,0 l/m 0 min 0 min 0 W/m 3,2 km/h (1 Bft) 95,74 %
16.11.2023 18:26 7,6 C 6,7 C 3,9 C 94 % 1010,7 hPa 0,0 l/m 0 min 0 min 0 W/m 3,2 km/h (1 Bft) 95,74 %
16.11.2023 18:28 7,6 C 6,7 C 3,9 C 94 % 1010,7 hPa 0,0 l/m 0 min 0 min 0 W/m 3,2 km/h (1 Bft) 95,74 %
16.11.2023 18:30 7,6 C 6,7 C 3,9 C 95 % 1010,8 hPa 0,0 l/m 0 min 0 min 0 W/m 0,0 km/h (0 Bft) 89,36 %
16.11.2023 18:32 7,5 C 6,7 C 3,9 C 95 % 1010,8 hPa 0,0 l/m 0 min 0 min 0 W/m 9,7 km/h (2 Bft) 97,83 %
16.11.2023 18:34 7,5 C 6,7 C 3,9 C 95 % 1010,8 hPa 0,0 l/m 0 min 0 min 0 W/m 3,2 km/h (1 Bft) 95,65 %
16.11.2023 18:36 7,5 C 6,7 C 3,9 C 95 % 1010,8 hPa 0,0 l/m 0 min 0 min 0 W/m 0,0 km/h (0 Bft) 95,74 %
16.11.2023 18:38 7,5 C 6,7 C 3,9 C 94 % 1010,8 hPa 0,0 l/m 0 min 0 min 0 W/m 0,0 km/h (0 Bft) 97,87 %
16.11.2023 18:40 7,5 C 6,7 C 3,9 C 95 % 1010,9 hPa 0,0 l/m 0 min 0 min 0 W/m 0,0 km/h (0 Bft) 97,87 %
16.11.2023 18:42 7,5 C 6,7 C 3,9 C 94 % 1010,9 hPa 0,0 l/m 0 min 0 min 0 W/m 3,2 km/h (1 Bft) 97,87 %
16.11.2023 18:44 7,5 C 6,7 C 3,9 C 94 % 1010,9 hPa 0,0 l/m 0 min 0 min 0 W/m 3,2 km/h (1 Bft) 93,62 %
16.11.2023 18:46 7,5 C 6,7 C 3,9 C 94 % 1010,9 hPa 0,0 l/m 0 min 0 min 0 W/m 3,2 km/h (1 Bft) 95,74 %
16.11.2023 18:48 7,5 C 6,7 C 3,9 C 94 % 1011,0 hPa 0,0 l/m 0 min 0 min 0 W/m 0,0 km/h (0 Bft) 97,83 %
16.11.2023 18:50 7,5 C 6,7 C 3,9 C 94 % 1011,0 hPa 0,0 l/m 0 min 0 min 0 W/m 3,2 km/h (1 Bft) 97,87 %
16.11.2023 18:52 7,5 C 6,7 C 3,9 C 94 % 1011,0 hPa 0,0 l/m 0 min 0 min 0 W/m 0,0 km/h (0 Bft) 100,00 %
16.11.2023 18:54 7,5 C 6,7 C 3,9 C 94 % 1010,9 hPa 0,0 l/m 0 min 0 min 0 W/m 0,0 km/h (0 Bft) 98,11 %
16.11.2023 18:56 7,5 C 6,7 C 3,9 C 95 % 1011,0 hPa 0,0 l/m 0 min 0 min 0 W/m 3,2 km/h (1 Bft) 97,87 %
16.11.2023 18:58 7,5 C 6,7 C 3,9 C 95 % 1011,0 hPa 0,0 l/m 0 min 0 min 0 W/m 0,0 km/h (0 Bft) 100,00 %
16.11.2023 19:00 7,5 C 6,7 C 3,9 C 95 % 1011,0 hPa 0,0 l/m 0 min 0 min 0 W/m 0,0 km/h (0 Bft) 97,87 %
16.11.2023 19:02 7,5 C 6,7 C 3,9 C 95 % 1011,0 hPa 0,0 l/m 0 min 0 min 0 W/m 0,0 km/h (0 Bft) 100,00 %
16.11.2023 19:04 7,5 C 6,7 C 3,9 C 95 % 1011,0 hPa 0,0 l/m 0 min 0 min 0 W/m 0,0 km/h (0 Bft) 100,00 %
16.11.2023 19:08 7,4 C 6,7 C 3,9 C 95 % 1011,1 hPa 0,0 l/m 0 min 0 min 0 W/m 3,2 km/h (1 Bft) 98,97 %
16.11.2023 19:09 7,4 C 6,7 C 3,9 C 95 % 1011,0 hPa 0,0 l/m 0 min 0 min 0 W/m 3,2 km/h (1 Bft) 95,83 %
16.11.2023 19:10 7,4 C 6,7 C 3,9 C 95 % 1011,0 hPa 0,0 l/m 0 min 0 min 0 W/m 3,2 km/h (1 Bft) 100,00 %
16.11.2023 19:14 7,4 C 6,7 C 3,9 C 95 % 1011,1 hPa 0,0 l/m 0 min 0 min 0 W/m 0,0 km/h (0 Bft) 98,31 %
16.11.2023 19:16 7,4 C 6,7 C 3,9 C 95 % 1011,1 hPa 0,0 l/m 0 min 0 min 0 W/m 3,2 km/h (1 Bft) 97,14 %
16.11.2023 19:18 7,5 C 6,7 C 3,9 C 95 % 1011,2 hPa 0,0 l/m 0 min 0 min 0 W/m 3,2 km/h (1 Bft) 100,00 %
16.11.2023 19:20 7,5 C 6,7 C 3,9 C 95 % 1011,2 hPa 0,0 l/m 0 min 0 min 0 W/m 3,2 km/h (1 Bft) 100,00 %
16.11.2023 19:22 7,5 C 6,7 C 3,9 C 95 % 1011,1 hPa 0,0 l/m 0 min 0 min 0 W/m 3,2 km/h (1 Bft) 100,00 %
16.11.2023 19:24 7,5 C 6,7 C 3,9 C 95 % 1011,1 hPa 0,0 l/m 0 min 0 min 0 W/m 9,7 km/h (2 Bft) 100,00 %
16.11.2023 19:26 7,5 C 6,7 C 3,9 C 95 % 1011,2 hPa 0,0 l/m 0 min 0 min 0 W/m 12,9 km/h (3 Bft) 100,00 %
16.11.2023 19:28 7,5 C 7,2 C 3,9 C 95 % 1011,2 hPa 0,0 l/m 0 min 0 min 0 W/m 12,9 km/h (3 Bft) 100,00 %
16.11.2023 19:30 7,5 C 7,2 C 3,9 C 95 % 1011,2 hPa 0,0 l/m 0 min 0 min 0 W/m 6,4 km/h (2 Bft) 100,00 %
16.11.2023 19:32 7,5 C 7,2 C 4,4 C 95 % 1011,2 hPa 0,0 l/m 0 min 0 min 0 W/m 6,4 km/h (2 Bft) 100,00 %
16.11.2023 19:34 7,6 C 7,2 C 4,4 C 95 % 1011,2 hPa 0,0 l/m 0 min 0 min 0 W/m 3,2 km/h (1 Bft) 100,00 %
16.11.2023 19:36 7,6 C 7,2 C 4,4 C 95 % 1011,3 hPa 0,0 l/m 0 min 0 min 0 W/m 6,4 km/h (2 Bft) 100,00 %
16.11.2023 19:38 7,6 C 7,2 C 4,4 C 95 % 1011,3 hPa 0,0 l/m 0 min 0 min 0 W/m 3,2 km/h (1 Bft) 100,00 %
16.11.2023 19:40 7,6 C 7,2 C 4,4 C 95 % 1011,3 hPa 0,0 l/m 0 min 0 min 0 W/m 6,4 km/h (2 Bft) 100,00 %
16.11.2023 19:42 7,6 C 7,2 C 4,4 C 95 % 1011,4 hPa 0,0 l/m 0 min 0 min 0 W/m 6,4 km/h (2 Bft) 100,00 %
16.11.2023 19:44 7,6 C 7,2 C 4,4 C 95 % 1011,4 hPa 0,0 l/m 0 min 0 min 0 W/m 3,2 km/h (1 Bft) 100,00 %
16.11.2023 19:46 7,6 C 7,2 C 4,4 C 95 % 1011,4 hPa 0,0 l/m 0 min 0 min 0 W/m 3,2 km/h (1 Bft) 100,00 %
16.11.2023 19:48 7,6 C 7,2 C 4,4 C 95 % 1011,5 hPa 0,0 l/m 0 min 0 min 0 W/m 3,2 km/h (1 Bft) 97,83 %
16.11.2023 19:50 7,6 C 7,2 C 4,4 C 95 % 1011,4 hPa 0,0 l/m 0 min 0 min 0 W/m 0,0 km/h (0 Bft) 93,62 %
16.11.2023 19:52 7,6 C 7,2 C 4,4 C 95 % 1011,4 hPa 0,0 l/m 0 min 0 min 0 W/m 6,4 km/h (2 Bft) 100,00 %
16.11.2023 19:54 7,6 C 7,2 C 4,4 C 95 % 1011,5 hPa 0,0 l/m 0 min 0 min 0 W/m 6,4 km/h (2 Bft) 100,00 %
16.11.2023 19:56 7,6 C 7,2 C 4,4 C 95 % 1011,5 hPa 0,0 l/m 0 min 0 min 0 W/m 6,4 km/h (2 Bft) 97,87 %
16.11.2023 19:58 7,6 C 7,2 C 4,4 C 95 % 1011,4 hPa 0,0 l/m 0 min 0 min 0 W/m 6,4 km/h (2 Bft) 100,00 %
16.11.2023 20:00 7,6 C 7,2 C 4,4 C 95 % 1011,5 hPa 0,0 l/m 0 min 0 min 0 W/m 6,4 km/h (2 Bft) 100,00 %
16.11.2023 20:02 7,6 C 7,2 C 4,4 C 95 % 1011,4 hPa 0,0 l/m 0 min 0 min 0 W/m 6,4 km/h (2 Bft) 97,83 %
16.11.2023 20:04 7,6 C 7,2 C 4,4 C 95 % 1011,4 hPa 0,0 l/m 0 min 0 min 0 W/m 3,2 km/h (1 Bft) 100,00 %
16.11.2023 20:06 7,6 C 7,2 C 4,4 C 95 % 1011,4 hPa 0,0 l/m 0 min 0 min 0 W/m 3,2 km/h (1 Bft) 97,87 %
16.11.2023 20:08 7,6 C 7,2 C 4,4 C 95 % 1011,4 hPa 0,0 l/m 0 min 0 min 0 W/m 3,2 km/h (1 Bft) 95,74 %
16.11.2023 20:10 7,6 C 7,2 C 4,4 C 95 % 1011,4 hPa 0,0 l/m 0 min 0 min 0 W/m 0,0 km/h (0 Bft) 97,87 %
16.11.2023 20:12 7,6 C 7,2 C 4,4 C 95 % 1011,4 hPa 0,0 l/m 0 min 0 min 0 W/m 3,2 km/h (1 Bft) 95,74 %
16.11.2023 20:14 7,6 C 7,2 C 4,4 C 95 % 1011,4 hPa 0,0 l/m 0 min 0 min 0 W/m 3,2 km/h (1 Bft) 95,74 %
16.11.2023 20:16 7,6 C 7,2 C 4,4 C 95 % 1011,4 hPa 0,0 l/m 0 min 0 min 0 W/m 6,4 km/h (2 Bft) 95,74 %
16.11.2023 20:18 7,6 C 7,2 C 4,4 C 95 % 1011,4 hPa 0,0 l/m 0 min 0 min 0 W/m 6,4 km/h (2 Bft) 93,48 %
16.11.2023 20:20 7,6 C 7,2 C 4,4 C 95 % 1011,4 hPa 0,0 l/m 0 min 0 min 0 W/m 3,2 km/h (1 Bft) 95,74 %
16.11.2023 20:22 7,6 C 7,2 C 4,4 C 95 % 1011,4 hPa 0,0 l/m 0 min 0 min 0 W/m 0,0 km/h (0 Bft) 95,74 %
16.11.2023 20:24 7,6 C 7,2 C 4,4 C 95 % 1011,4 hPa 0,0 l/m 0 min 0 min 0 W/m 3,2 km/h (1 Bft) 93,62 %
16.11.2023 20:26 7,6 C 7,2 C 4,4 C 95 % 1011,3 hPa 0,0 l/m 0 min 0 min 0 W/m 9,7 km/h (2 Bft) 93,62 %
16.11.2023 20:28 7,6 C 7,2 C 4,4 C 95 % 1011,4 hPa 0,0 l/m 0 min 0 min 0 W/m 0,0 km/h (0 Bft) 95,74 %
16.11.2023 20:30 7,6 C 7,2 C 4,4 C 95 % 1011,4 hPa 0,0 l/m 0 min 0 min 0 W/m 3,2 km/h (1 Bft) 95,74 %
16.11.2023 20:32 7,6 C 7,2 C 4,4 C 95 % 1011,5 hPa 0,0 l/m 0 min 0 min 0 W/m 6,4 km/h (2 Bft) 93,48 %
16.11.2023 20:34 7,6 C 7,2 C 4,4 C 95 % 1011,4 hPa 0,0 l/m 0 min 0 min 0 W/m 6,4 km/h (2 Bft) 95,74 %
16.11.2023 20:36 7,6 C 7,2 C 4,4 C 95 % 1011,5 hPa 0,0 l/m 0 min 0 min 0 W/m 0,0 km/h (0 Bft) 91,49 %
16.11.2023 20:38 7,6 C 7,2 C 4,4 C 95 % 1011,5 hPa 0,0 l/m 0 min 0 min 0 W/m 9,7 km/h (2 Bft) 95,74 %
16.11.2023 20:40 7,6 C 7,2 C 4,4 C 95 % 1011,6 hPa 0,0 l/m 0 min 0 min 0 W/m 3,2 km/h (1 Bft) 97,87 %
16.11.2023 20:42 7,6 C 7,2 C 4,4 C 95 % 1011,7 hPa 0,0 l/m 0 min 0 min 0 W/m 6,4 km/h (2 Bft) 97,87 %
16.11.2023 20:44 7,6 C 7,2 C 4,4 C 95 % 1011,8 hPa 0,0 l/m 0 min 0 min 0 W/m 12,9 km/h (3 Bft) 97,83 %
16.11.2023 20:46 7,6 C 7,2 C 4,4 C 95 % 1011,8 hPa 0,0 l/m 0 min 0 min 0 W/m 12,9 km/h (3 Bft) 95,74 %
16.11.2023 20:48 7,6 C 7,2 C 4,4 C 95 % 1011,8 hPa 0,0 l/m 0 min 0 min 0 W/m 12,9 km/h (3 Bft) 97,87 %
16.11.2023 20:50 7,5 C 7,2 C 4,4 C 95 % 1011,9 hPa 0,0 l/m 0 min 0 min 0 W/m 6,4 km/h (2 Bft) 97,87 %
16.11.2023 20:52 7,5 C 7,2 C 4,4 C 95 % 1012,0 hPa 0,0 l/m 0 min 0 min 0 W/m 3,2 km/h (1 Bft) 97,87 %
16.11.2023 20:54 7,6 C 7,2 C 4,4 C 95 % 1012,0 hPa 0,0 l/m 0 min 0 min 0 W/m 0,0 km/h (0 Bft) 97,87 %
16.11.2023 20:56 7,5 C 7,2 C 4,4 C 95 % 1012,0 hPa 0,0 l/m 0 min 0 min 0 W/m 6,4 km/h (2 Bft) 100,00 %
16.11.2023 20:58 7,6 C 7,2 C 4,4 C 95 % 1012,1 hPa 0,0 l/m 0 min 0 min 0 W/m 3,2 km/h (1 Bft) 91,30 %
16.11.2023 21:00 7,5 C 7,2 C 4,4 C 95 % 1012,1 hPa 0,0 l/m 0 min 0 min 0 W/m 6,4 km/h (2 Bft) 97,83 %
16.11.2023 21:02 7,5 C 7,2 C 4,4 C 95 % 1012,1 hPa 0,0 l/m 0 min 0 min 0 W/m 6,4 km/h (2 Bft) 95,74 %
16.11.2023 21:04 7,5 C 7,2 C 4,4 C 95 % 1012,1 hPa 0,0 l/m 0 min 0 min 0 W/m 3,2 km/h (1 Bft) 97,83 %
16.11.2023 21:10 7,4 C 7,2 C 4,4 C 95 % 1012,2 hPa 0,0 l/m 0 min 0 min 0 W/m 9,7 km/h (2 Bft) 96,90 %
16.11.2023 21:12 7,4 C 7,2 C 4,4 C 95 % 1012,2 hPa 0,0 l/m 0 min 0 min 0 W/m 3,2 km/h (1 Bft) 97,87 %
16.11.2023 21:14 7,4 C 7,2 C 4,4 C 95 % 1012,3 hPa 0,0 l/m 0 min 0 min 0 W/m 6,4 km/h (2 Bft) 91,49 %
16.11.2023 21:16 7,4 C 7,2 C 4,4 C 95 % 1012,3 hPa 0,0 l/m 0 min 0 min 0 W/m 3,2 km/h (1 Bft) 54,35 %
16.11.2023 21:18 7,4 C 7,2 C 4,4 C 95 % 1012,3 hPa 0,0 l/m 0 min 0 min 0 W/m 6,4 km/h (2 Bft) 97,87 %
16.11.2023 21:20 7,4 C 6,7 C 4,4 C 95 % 1012,3 hPa 0,0 l/m 0 min 0 min 0 W/m 6,4 km/h (2 Bft) 93,48 %
16.11.2023 21:22 7,3 C 6,7 C 4,4 C 95 % 1012,4 hPa 0,0 l/m 0 min 0 min 0 W/m 6,4 km/h (2 Bft) 97,87 %
16.11.2023 21:24 7,3 C 6,7 C 4,4 C 95 % 1012,4 hPa 0,0 l/m 0 min 0 min 0 W/m 3,2 km/h (1 Bft) 95,74 %
16.11.2023 21:26 7,3 C 6,7 C 4,4 C 95 % 1012,3 hPa 0,0 l/m 0 min 0 min 0 W/m 3,2 km/h (1 Bft) 95,74 %
16.11.2023 21:28 7,3 C 6,7 C 4,4 C 95 % 1012,4 hPa 0,0 l/m 0 min 0 min 0 W/m 12,9 km/h (3 Bft) 97,87 %
16.11.2023 21:30 7,3 C 6,7 C 4,4 C 95 % 1012,4 hPa 0,0 l/m 0 min 0 min 0 W/m 9,7 km/h (2 Bft) 95,74 %
16.11.2023 21:32 7,3 C 6,7 C 3,9 C 95 % 1012,4 hPa 0,0 l/m 0 min 0 min 0 W/m 3,2 km/h (1 Bft) 93,48 %
16.11.2023 21:34 7,3 C 6,7 C 3,9 C 94 % 1012,5 hPa 0,0 l/m 0 min 0 min 0 W/m 3,2 km/h (1 Bft) 98,11 %
16.11.2023 21:36 7,3 C 6,7 C 3,9 C 94 % 1012,6 hPa 0,0 l/m 0 min 0 min 0 W/m 6,4 km/h (2 Bft) 97,56 %
16.11.2023 21:38 7,3 C 6,7 C 3,9 C 94 % 1012,6 hPa 0,0 l/m 0 min 0 min 0 W/m 6,4 km/h (2 Bft) 93,62 %
16.11.2023 21:40 7,2 C 6,7 C 3,9 C 94 % 1012,6 hPa 0,0 l/m 0 min 0 min 0 W/m 6,4 km/h (2 Bft) 97,87 %
16.11.2023 21:42 7,2 C 6,7 C 3,9 C 94 % 1012,7 hPa 0,0 l/m 0 min 0 min 0 W/m 6,4 km/h (2 Bft) 95,74 %
16.11.2023 21:44 7,2 C 6,7 C 3,9 C 94 % 1012,7 hPa 0,0 l/m 0 min 0 min 0 W/m 3,2 km/h (1 Bft) 95,74 %
16.11.2023 21:46 7,2 C 6,7 C 3,9 C 94 % 1012,8 hPa 0,0 l/m 0 min 0 min 0 W/m 3,2 km/h (1 Bft) 95,74 %
16.11.2023 21:48 7,2 C 6,7 C 3,9 C 94 % 1012,8 hPa 0,0 l/m 0 min 0 min 0 W/m 3,2 km/h (1 Bft) 97,83 %
16.11.2023 21:50 7,2 C 6,7 C 3,9 C 94 % 1012,8 hPa 0,0 l/m 0 min 0 min 0 W/m 6,4 km/h (2 Bft) 97,87 %
16.11.2023 21:52 7,2 C 6,7 C 3,9 C 94 % 1012,8 hPa 0,0 l/m 0 min 0 min 0 W/m 6,4 km/h (2 Bft) 100,00 %
16.11.2023 21:54 7,2 C 6,7 C 3,9 C 94 % 1012,8 hPa 0,0 l/m 0 min 0 min 0 W/m 3,2 km/h (1 Bft) 96,49 %
16.11.2023 21:56 7,2 C 6,7 C 3,9 C 94 % 1012,8 hPa 0,0 l/m 0 min 0 min 0 W/m 6,4 km/h (2 Bft) 95,74 %
16.11.2023 21:58 7,2 C 6,7 C 3,9 C 94 % 1012,9 hPa 0,0 l/m 0 min 0 min 0 W/m 6,4 km/h (2 Bft) 97,87 %
16.11.2023 22:00 7,2 C 6,7 C 3,9 C 94 % 1012,8 hPa 0,0 l/m 0 min 0 min 0 W/m 3,2 km/h (1 Bft) 97,92 %
16.11.2023 22:02 7,2 C 6,7 C 3,9 C 94 % 1012,9 hPa 0,0 l/m 0 min 0 min 0 W/m 3,2 km/h (1 Bft) 91,49 %
16.11.2023 22:04 7,2 C 6,7 C 3,9 C 94 % 1012,9 hPa 0,0 l/m 0 min 0 min 0 W/m 9,7 km/h (2 Bft) 100,00 %
16.11.2023 22:08 7,1 C 6,1 C 3,9 C 94 % 1012,8 hPa 0,0 l/m 0 min 0 min 0 W/m 6,4 km/h (2 Bft) 95,05 %
16.11.2023 22:09 7,1 C 6,1 C 3,9 C 94 % 1012,9 hPa 0,0 l/m 0 min 0 min 0 W/m 6,4 km/h (2 Bft) 95,83 %
16.11.2023 22:12 7,1 C 6,1 C 3,3 C 94 % 1012,9 hPa 0,0 l/m 0 min 0 min 0 W/m 6,4 km/h (2 Bft) 94,83 %
16.11.2023 22:14 7,0 C 6,1 C 3,3 C 94 % 1013,0 hPa 0,0 l/m 0 min 0 min 0 W/m 6,4 km/h (2 Bft) 95,74 %
16.11.2023 22:16 7,0 C 6,1 C 3,3 C 94 % 1013,0 hPa 0,0 l/m 0 min 0 min 0 W/m 3,2 km/h (1 Bft) 97,87 %
16.11.2023 22:18 6,9 C 6,1 C 3,3 C 93 % 1013,0 hPa 0,0 l/m 0 min 0 min 0 W/m 9,7 km/h (2 Bft) 97,92 %
16.11.2023 22:20 6,9 C 6,1 C 3,3 C 94 % 1013,0 hPa 0,0 l/m 0 min 0 min 0 W/m 3,2 km/h (1 Bft) 93,62 %
16.11.2023 22:22 6,9 C 6,1 C 3,3 C 94 % 1013,1 hPa 0,0 l/m 0 min 0 min 0 W/m 6,4 km/h (2 Bft) 97,87 %
16.11.2023 22:24 6,8 C 6,1 C 3,3 C 94 % 1013,1 hPa 0,0 l/m 0 min 0 min 0 W/m 0,0 km/h (0 Bft) 97,87 %
16.11.2023 22:26 6,8 C 6,1 C 3,3 C 94 % 1013,1 hPa 0,0 l/m 0 min 0 min 0 W/m 0,0 km/h (0 Bft) 100,00 %
16.11.2023 22:28 6,8 C 6,1 C 3,3 C 94 % 1013,2 hPa 0,0 l/m 0 min 0 min 0 W/m 6,4 km/h (2 Bft) 100,00 %
16.11.2023 22:30 6,8 C 6,1 C 3,3 C 94 % 1013,2 hPa 0,0 l/m 0 min 0 min 0 W/m 6,4 km/h (2 Bft) 100,00 %
16.11.2023 22:32 6,8 C 6,1 C 3,3 C 94 % 1013,2 hPa 0,0 l/m 0 min 0 min 0 W/m 3,2 km/h (1 Bft) 100,00 %
16.11.2023 22:34 6,7 C 5,6 C 3,3 C 94 % 1013,2 hPa 0,0 l/m 0 min 0 min 0 W/m 3,2 km/h (1 Bft) 95,74 %
16.11.2023 22:36 6,7 C 5,6 C 3,3 C 94 % 1013,2 hPa 0,0 l/m 0 min 0 min 0 W/m 3,2 km/h (1 Bft) 100,00 %
16.11.2023 22:38 6,7 C 5,6 C 3,3 C 94 % 1013,3 hPa 0,0 l/m 0 min 0 min 0 W/m 9,7 km/h (2 Bft) 97,87 %
16.11.2023 22:40 6,6 C 5,6 C 3,3 C 94 % 1013,3 hPa 0,0 l/m 0 min 0 min 0 W/m 3,2 km/h (1 Bft) 100,00 %
16.11.2023 22:42 6,6 C 5,6 C 3,3 C 94 % 1013,3 hPa 0,0 l/m 0 min 0 min 0 W/m 12,9 km/h (3 Bft) 100,00 %
16.11.2023 22:44 6,6 C 5,6 C 3,3 C 94 % 1013,3 hPa 0,0 l/m 0 min 0 min 0 W/m 6,4 km/h (2 Bft) 93,62 %
16.11.2023 22:46 6,6 C 5,6 C 3,3 C 94 % 1013,4 hPa 0,0 l/m 0 min 0 min 0 W/m 6,4 km/h (2 Bft) 95,74 %
16.11.2023 22:48 6,5 C 5,6 C 3,3 C 94 % 1013,4 hPa 0,0 l/m 0 min 0 min 0 W/m 3,2 km/h (1 Bft) 95,74 %
16.11.2023 22:50 6,5 C 5,6 C 3,3 C 94 % 1013,4 hPa 0,0 l/m 0 min 0 min 0 W/m 3,2 km/h (1 Bft) 97,87 %
16.11.2023 22:52 6,5 C 5,6 C 2,8 C 94 % 1013,4 hPa 0,0 l/m 0 min 0 min 0 W/m 0,0 km/h (0 Bft) 97,87 %
16.11.2023 22:54 6,5 C 5,6 C 2,8 C 94 % 1013,5 hPa 0,0 l/m 0 min 0 min 0 W/m 3,2 km/h (1 Bft) 97,92 %
16.11.2023 22:56 6,4 C 5,6 C 2,8 C 94 % 1013,5 hPa 0,0 l/m 0 min 0 min 0 W/m 6,4 km/h (2 Bft) 97,87 %
16.11.2023 22:58 6,4 C 5,6 C 2,8 C 94 % 1013,6 hPa 0,0 l/m 0 min 0 min 0 W/m 6,4 km/h (2 Bft) 97,87 %
16.11.2023 23:00 6,4 C 5,6 C 2,8 C 94 % 1013,6 hPa 0,0 l/m 0 min 0 min 0 W/m 3,2 km/h (1 Bft) 95,74 %
16.11.2023 23:04 6,3 C 5,6 C 2,8 C 94 % 1013,7 hPa 0,0 l/m 0 min 0 min 0 W/m 3,2 km/h (1 Bft) 96,99 %
16.11.2023 23:06 6,3 C 5,6 C 2,8 C 94 % 1013,8 hPa 0,0 l/m 0 min 0 min 0 W/m 3,2 km/h (1 Bft) 97,50 %
16.11.2023 23:08 6,3 C 5,6 C 2,8 C 94 % 1013,9 hPa 0,0 l/m 0 min 0 min 0 W/m 3,2 km/h (1 Bft) 100,00 %
16.11.2023 23:10 6,3 C 5,6 C 2,8 C 94 % 1013,9 hPa 0,0 l/m 0 min 0 min 0 W/m 0,0 km/h (0 Bft) 97,87 %
16.11.2023 23:12 6,3 C 5,6 C 2,8 C 94 % 1013,9 hPa 0,0 l/m 0 min 0 min 0 W/m 3,2 km/h (1 Bft) 97,83 %
16.11.2023 23:14 6,3 C 5,6 C 2,8 C 95 % 1014,0 hPa 0,0 l/m 0 min 0 min 0 W/m 6,4 km/h (2 Bft) 93,75 %
16.11.2023 23:16 6,3 C 5,6 C 2,8 C 95 % 1014,0 hPa 0,0 l/m 0 min 0 min 0 W/m 3,2 km/h (1 Bft) 95,74 %
16.11.2023 23:18 6,2 C 5,6 C 2,8 C 95 % 1014,1 hPa 0,0 l/m 0 min 0 min 0 W/m 0,0 km/h (0 Bft) 97,87 %
16.11.2023 23:20 6,2 C 5,6 C 2,8 C 95 % 1014,1 hPa 0,0 l/m 0 min 0 min 0 W/m 3,2 km/h (1 Bft) 97,87 %
16.11.2023 23:22 6,2 C 5,6 C 2,8 C 95 % 1014,1 hPa 0,0 l/m 0 min 0 min 0 W/m 3,2 km/h (1 Bft) 95,74 %
16.11.2023 23:24 6,2 C 5,6 C 2,8 C 95 % 1014,1 hPa 0,0 l/m 0 min 0 min 0 W/m 6,4 km/h (2 Bft) 97,87 %
16.11.2023 23:26 6,2 C 5,6 C 2,8 C 95 % 1014,2 hPa 0,0 l/m 0 min 0 min 0 W/m 3,2 km/h (1 Bft) 97,83 %
16.11.2023 23:28 6,2 C 5,6 C 2,8 C 95 % 1014,2 hPa 0,0 l/m 0 min 0 min 0 W/m 3,2 km/h (1 Bft) 97,87 %
16.11.2023 23:30 6,1 C 5,6 C 2,8 C 95 % 1014,2 hPa 0,0 l/m 0 min 0 min 0 W/m 0,0 km/h (0 Bft) 97,87 %
16.11.2023 23:32 6,1 C 5,6 C 2,8 C 95 % 1014,2 hPa 0,0 l/m 0 min 0 min 0 W/m 6,4 km/h (2 Bft) 100,00 %
16.11.2023 23:34 6,1 C 5,6 C 2,8 C 95 % 1014,2 hPa 0,0 l/m 0 min 0 min 0 W/m 6,4 km/h (2 Bft) 100,00 %
16.11.2023 23:36 6,1 C 5,6 C 2,8 C 95 % 1014,2 hPa 0,0 l/m 0 min 0 min 0 W/m 3,2 km/h (1 Bft) 100,00 %
16.11.2023 23:38 6,1 C 5,6 C 2,8 C 95 % 1014,2 hPa 0,0 l/m 0 min 0 min 0 W/m 3,2 km/h (1 Bft) 100,00 %
16.11.2023 23:40 6,0 C 5,6 C 2,8 C 95 % 1014,3 hPa 0,0 l/m 0 min 0 min 0 W/m 3,2 km/h (1 Bft) 97,83 %
16.11.2023 23:42 6,0 C 5,0 C 2,8 C 95 % 1014,4 hPa 0,0 l/m 0 min 0 min 0 W/m 6,4 km/h (2 Bft) 97,87 %
16.11.2023 23:44 6,0 C 5,0 C 2,8 C 95 % 1014,5 hPa 0,0 l/m 0 min 0 min 0 W/m 3,2 km/h (1 Bft) 97,87 %
16.11.2023 23:46 5,9 C 5,0 C 2,8 C 95 % 1014,5 hPa 0,0 l/m 0 min 0 min 0 W/m 3,2 km/h (1 Bft) 95,74 %
16.11.2023 23:48 5,9 C 5,0 C 2,8 C 95 % 1014,6 hPa 0,0 l/m 0 min 0 min 0 W/m 0,0 km/h (0 Bft) 97,87 %
16.11.2023 23:50 5,9 C 5,0 C 2,8 C 95 % 1014,6 hPa 0,0 l/m 0 min 0 min 0 W/m 0,0 km/h (0 Bft) 97,87 %
16.11.2023 23:52 5,9 C 5,0 C 2,8 C 95 % 1014,6 hPa 0,0 l/m 0 min 0 min 0 W/m 0,0 km/h (0 Bft) 95,74 %
16.11.2023 23:54 5,9 C 5,0 C 2,8 C 95 % 1014,7 hPa 0,0 l/m 0 min 0 min 0 W/m 0,0 km/h (0 Bft) 97,83 %
16.11.2023 23:56 5,9 C 5,0 C 2,8 C 95 % 1014,7 hPa 0,0 l/m 0 min 0 min 0 W/m 0,0 km/h (0 Bft) 97,87 %
16.11.2023 23:58 5,9 C 5,0 C 2,8 C 95 % 1014,7 hPa 0,0 l/m 0 min 0 min 0 W/m 0,0 km/h (0 Bft) 100,00 %
_ Min-Zeit 23:46 23:42 22:52 12:34 15:12 - - - - 07:06 00:02
Minimum _ 5,9 C 5,0 C 2,8 C 90 % 1010,1 hPa - - - - 0,0 km/h (0 Bft) 11,11 %
_ Max-Zeit 12:30 15:16 10:50 18:30 00:16 00:00 00:00 00:00 10:58 02:56 00:42
Maximum _ 8,7 C 8,9 C 5,6 C 95 % 1017,1 hPa 0,0 l/m 0 min 0 min 121 W/m 22,5 km/h
O (4 Bft)
100,00 %
Durchschnitt _ 7,7 C 7,2 C 4,4 C 93 % 1013,7 hPa #0,0 l/m #0 min. #0 min. 50 W/m 4,8 km/h (1 Bft) 96,93 %
© 2023 W. Hausmann